| time (UTC) | temp C | wind direction | speed KPH | gust KPH | rain 1hr cm | rain 24hr cm | rain mn cm | humidity % | barometer mb |
| 20260505230156 | 13 | 224 | 0.0 | 0.0 | 0.00 | 0.94 | 0.94 | 93 | 1000.5 |
| 20260505230049 | 13 | 224 | 0.0 | 0.0 | 0.00 | 0.94 | 0.94 | 93 | 1000.5 |
| 20260505225944 | 13 | 224 | 0.0 | 0.0 | 0.00 | 0.94 | 0.94 | 93 | 1000.5 |
| 20260505225837 | 13 | 224 | 0.0 | 0.0 | 0.00 | 0.94 | 0.94 | 93 | 1000.5 |
| 20260505225730 | 13 | 224 | 0.0 | 0.0 | 0.00 | 0.94 | 0.94 | 93 | 1000.5 |
| 20260505225625 | 13 | 224 | 0.0 | 0.0 | 0.00 | 0.94 | 0.94 | 93 | 1000.5 |
| 20260505225520 | 13 | 234 | 0.0 | 0.0 | 0.00 | 0.94 | 0.94 | 93 | 1000.5 |
| 20260505225152 | 13 | 346 | 0.0 | 0.0 | 0.00 | 0.94 | 0.94 | 93 | 1000.4 |
| 20260505225049 | 13 | 346 | 0.0 | 0.0 | 0.00 | 0.94 | 0.94 | 93 | 1000.4 |
| 20260505224942 | 13 | 346 | 0.0 | 0.0 | 0.00 | 0.94 | 0.94 | 93 | 1000.4 |
| 20260505224837 | 13 | 55 | 0.0 | 0.0 | 0.00 | 0.94 | 0.94 | 93 | 1000.3 |
| 20260505224729 | 13 | 55 | 0.0 | 0.0 | 0.00 | 0.94 | 0.94 | 93 | 1000.2 |
| 20260505224626 | 13 | 55 | 0.0 | 0.0 | 0.00 | 0.94 | 0.94 | 93 | 1000.2 |
| 20260505224521 | 13 | 55 | 0.0 | 0.0 | 0.00 | 0.94 | 0.94 | 93 | 1000.0 |
| 20260505224414 | 13 | 55 | 0.0 | 0.0 | 0.00 | 0.94 | 0.94 | 93 | 1000.0 |
| 20260505224310 | 13 | 55 | 0.0 | 0.0 | 0.00 | 0.94 | 0.94 | 93 | 999.9 |
| 20260505223729 | 13 | 55 | 0.0 | 0.0 | 0.00 | 0.94 | 0.94 | 93 | 999.9 |
| 20260505223405 | 13 | 55 | 0.0 | 0.0 | 0.00 | 0.94 | 0.94 | 93 | 999.8 |
| 20260505223258 | 13 | 55 | 0.0 | 0.0 | 0.00 | 0.94 | 0.94 | 93 | 999.8 |
| 20260505223153 | 13 | 55 | 0.0 | 0.0 | 0.00 | 0.94 | 0.94 | 93 | 999.8 |
| 20260505223048 | 13 | 55 | 0.0 | 0.0 | 0.00 | 0.94 | 0.94 | 93 | 999.8 |
| 20260505222945 | 13 | 55 | 0.0 | 0.0 | 0.00 | 0.94 | 0.94 | 93 | 999.8 |
| 20260505222838 | 13 | 55 | 0.0 | 0.0 | 0.00 | 0.94 | 0.94 | 93 | 999.7 |
| 20260505222732 | 13 | 55 | 0.0 | 0.0 | 0.00 | 0.94 | 0.94 | 93 | 999.7 |
| 20260505222628 | 13 | 55 | 0.0 | 0.0 | 0.00 | 0.94 | 0.94 | 93 | 999.7 |
| 20260505222524 | 13 | 55 | 0.0 | 0.0 | 0.00 | 0.94 | 0.94 | 93 | 999.7 |
| 20260505222417 | 13 | 55 | 0.0 | 0.0 | 0.00 | 0.94 | 0.94 | 93 | 999.7 |
| 20260505222315 | 13 | 55 | 0.0 | 0.0 | 0.00 | 0.94 | 0.94 | 93 | 999.6 |
| 20260505222208 | 13 | 55 | 0.0 | 0.0 | 0.00 | 0.94 | 0.94 | 93 | 999.5 |
| 20260505222103 | 13 | 55 | 0.0 | 0.0 | 0.00 | 0.94 | 0.94 | 92 | 999.6 |
| 20260505221739 | 13 | 55 | 0.0 | 0.0 | 0.00 | 0.94 | 0.94 | 92 | 999.6 |
| 20260505221634 | 13 | 55 | 0.0 | 0.0 | 0.00 | 0.94 | 0.94 | 93 | 999.5 |
| 20260505221310 | 13 | 55 | 0.0 | 0.0 | 0.00 | 0.94 | 0.94 | 93 | 999.4 |
| 20260505221208 | 13 | 55 | 0.0 | 0.0 | 0.00 | 0.94 | 0.94 | 92 | 999.4 |
| 20260505221100 | 13 | 55 | 0.0 | 0.0 | 0.00 | 0.94 | 0.94 | 92 | 999.2 |
| 20260505220957 | 13 | 55 | 0.0 | 0.0 | 0.00 | 0.94 | 0.94 | 92 | 999.2 |
| 20260505220850 | 13 | 55 | 0.0 | 0.0 | 0.00 | 0.94 | 0.94 | 92 | 999.2 |
| 20260505220746 | 13 | 55 | 0.0 | 0.0 | 0.00 | 0.94 | 0.94 | 92 | 999.3 |
| 20260505220639 | 13 | 38 | 0.0 | 0.0 | 0.00 | 0.94 | 0.94 | 92 | 999.3 |
| 20260505220533 | 13 | 38 | 0.0 | 0.0 | 0.00 | 0.94 | 0.94 | 92 | 999.3 |
| 20260505220431 | 13 | 296 | 0.0 | 0.0 | 0.00 | 0.94 | 0.94 | 92 | 999.3 |
| 20260505220328 | 13 | 296 | 0.0 | 0.0 | 0.00 | 0.94 | 0.94 | 92 | 999.3 |
| 20260505220226 | 13 | 296 | 0.0 | 0.0 | 0.00 | 0.94 | 0.94 | 92 | 999.3 |
| 20260505220119 | 13 | 296 | 0.0 | 0.0 | 0.00 | 0.94 | 0.94 | 92 | 999.3 |
| 20260505215754 | 13 | 290 | 0.0 | 0.0 | 0.00 | 0.94 | 0.94 | 92 | 999.4 |
| 20260505215651 | 13 | 290 | 0.0 | 0.0 | 0.00 | 0.94 | 0.94 | 92 | 999.3 |
| 20260505215331 | 13 | 63 | 0.0 | 0.0 | 0.00 | 0.94 | 0.94 | 92 | 999.3 |
| 20260505215225 | 13 | 13 | 0.0 | 0.0 | 0.00 | 0.94 | 0.94 | 92 | 999.3 |
| 20260505215123 | 13 | 329 | 0.0 | 0.0 | 0.00 | 0.94 | 0.94 | 92 | 999.4 |
| 20260505215015 | 13 | 329 | 0.0 | 0.0 | 0.00 | 0.94 | 0.94 | 92 | 999.4 |
| 20260505214910 | 13 | 329 | 0.0 | 0.0 | 0.00 | 0.94 | 0.94 | 92 | 999.2 |
| 20260505214805 | 13 | 329 | 0.0 | 0.0 | 0.00 | 0.94 | 0.94 | 92 | 999.2 |
| 20260505214702 | 13 | 329 | 0.0 | 0.0 | 0.00 | 0.94 | 0.94 | 92 | 999.2 |
| 20260505214557 | 13 | 355 | 0.0 | 0.0 | 0.00 | 0.94 | 0.94 | 92 | 999.2 |
| 20260505214455 | 13 | 344 | 0.0 | 0.0 | 0.00 | 0.94 | 0.94 | 92 | 999.1 |
| 20260505214350 | 13 | 336 | 0.0 | 0.0 | 0.00 | 0.94 | 0.94 | 92 | 999.1 |
| 20260505214244 | 13 | 58 | 0.0 | 0.0 | 0.00 | 0.94 | 0.94 | 92 | 998.9 |
| 20260505214138 | 13 | 0 | 0.0 | 0.0 | 0.00 | 0.94 | 0.94 | 92 | 999.1 |
| 20260505214035 | 13 | 0 | 0.0 | 0.0 | 0.00 | 0.94 | 0.94 | 92 | 999.1 |
| 20260505213931 | 13 | 339 | 0.0 | 0.0 | 0.08 | 0.94 | 0.94 | 92 | 999.2 |
| 20260505213823 | 13 | 339 | 0.0 | 0.0 | 0.08 | 0.94 | 0.94 | 92 | 999.3 |
| 20260505213717 | 13 | 339 | 0.0 | 0.0 | 0.08 | 0.94 | 0.94 | 92 | 999.3 |
| 20260505213611 | 13 | 339 | 0.0 | 0.0 | 0.08 | 0.94 | 0.94 | 91 | 999.3 |
| 20260505213508 | 13 | 339 | 0.0 | 0.0 | 0.08 | 0.94 | 0.94 | 91 | 999.3 |
| 20260505213404 | 13 | 346 | 0.0 | 3.2 | 0.08 | 0.94 | 0.94 | 91 | 999.3 |
| 20260505212822 | 13 | 305 | 0.0 | 0.0 | 0.18 | 0.94 | 0.94 | 91 | 999.3 |
| 20260505212457 | 14 | 299 | 0.0 | 0.0 | 0.33 | 0.94 | 0.94 | 91 | 999.3 |
| 20260505211909 | 14 | 240 | 0.0 | 14.5 | 0.00 | 0.89 | 0.89 | 90 | 999.5 |
| 20260505211802 | 14 | 314 | 0.0 | 14.5 | 0.00 | 0.89 | 0.89 | 90 | 999.3 |
| 20260505211654 | 14 | 298 | 0.0 | 0.0 | 0.00 | 0.89 | 0.89 | 90 | 999.2 |
| 20260505211550 | 14 | 263 | 0.0 | 8.0 | 0.00 | 0.89 | 0.89 | 90 | 999.1 |
| 20260505211004 | 15 | 271 | 0.0 | 0.0 | 0.08 | 0.89 | 0.89 | 89 | 998.8 |
| 20260505210901 | 15 | 179 | 0.0 | 0.0 | 0.08 | 0.89 | 0.89 | 89 | 998.8 |
| 20260505210754 | 15 | 263 | 0.0 | 0.0 | 0.10 | 0.89 | 0.89 | 89 | 998.8 |
| 20260505210647 | 15 | 256 | 0.0 | 0.0 | 0.10 | 0.89 | 0.89 | 89 | 998.7 |
| 20260505210543 | 15 | 250 | 0.0 | 0.0 | 0.13 | 0.89 | 0.89 | 88 | 998.5 |
| 20260505210440 | 15 | 201 | 0.0 | 0.0 | 0.15 | 0.89 | 0.89 | 88 | 998.6 |
| 20260505210336 | 15 | 199 | 0.0 | 0.0 | 0.18 | 0.89 | 0.89 | 87 | 998.6 |
| 20260505210230 | 15 | 286 | 0.0 | 0.0 | 0.20 | 0.89 | 0.89 | 87 | 998.4 |
| 20260505210126 | 15 | 286 | 1.6 | 0.0 | 0.28 | 0.89 | 0.89 | 86 | 998.4 |
| 20260505210019 | 15 | 318 | 3.2 | 0.0 | 0.36 | 0.89 | 0.89 | 85 | 998.4 |
| 20260505205916 | 15 | 19 | 3.2 | 0.0 | 0.43 | 0.89 | 0.89 | 84 | 998.4 |
| 20260505205810 | 16 | 316 | 3.2 | 0.0 | 0.43 | 0.86 | 0.89 | 84 | 998.4 |
| 20260505205706 | 16 | 244 | 4.8 | 38.6 | 0.46 | 0.86 | 0.86 | 83 | 998.3 |
| 20260505205559 | 16 | 215 | 4.8 | 38.6 | 0.74 | 0.86 | 0.86 | 81 | 998.3 |
| 20260505205452 | 17 | 296 | 4.8 | 38.6 | 4.93 | 0.79 | 0.86 | 80 | 998.4 |
| 20260505205345 | 17 | 260 | 4.8 | 38.6 | 6.76 | 0.71 | 0.81 | 78 | 998.6 |
| 20260505205237 | 18 | 274 | 4.8 | 38.6 | 6.58 | 0.58 | 0.71 | 75 | 998.5 |
| 20260505205134 | 18 | 300 | 3.2 | 24.1 | 0.00 | 0.56 | 0.58 | 73 | 998.4 |
| 20260505205028 | 18 | 253 | 1.6 | 22.5 | 0.00 | 0.56 | 0.56 | 73 | 998.3 |
| 20260505204921 | 18 | 259 | 1.6 | 19.3 | 0.00 | 0.56 | 0.56 | 73 | 997.9 |
| 20260505204819 | 18 | 284 | 1.6 | 19.3 | 0.00 | 0.56 | 0.56 | 73 | 997.5 |
| 20260505204714 | 18 | 309 | 1.6 | 19.3 | 0.00 | 0.56 | 0.56 | 73 | 997.3 |
| 20260505204612 | 18 | 244 | 1.6 | 19.3 | 0.00 | 0.56 | 0.56 | 73 | 996.9 |
| 20260505204507 | 18 | 277 | 1.6 | 19.3 | 0.00 | 0.56 | 0.56 | 73 | 996.8 |
| 20260505204403 | 18 | 175 | 1.6 | 19.3 | 0.00 | 0.56 | 0.56 | 73 | 996.8 |
| 20260505204257 | 18 | 235 | 0.0 | 16.1 | 0.00 | 0.56 | 0.56 | 73 | 996.9 |
| 20260505203933 | 18 | 267 | 1.6 | 16.1 | 0.00 | 0.56 | 0.56 | 74 | 996.8 |
| 20260505203352 | 18 | 276 | 1.6 | 0.0 | 0.00 | 0.56 | 0.56 | 75 | 997.0 |
| 20260505203245 | 18 | 225 | 3.2 | 24.1 | 0.00 | 0.56 | 0.56 | 75 | 997.1 |
| 20260505203138 | 18 | 280 | 4.8 | 24.1 | 0.00 | 0.56 | 0.56 | 75 | 997.1 |
| 20260505203032 | 18 | 227 | 3.2 | 24.1 | 0.00 | 0.56 | 0.56 | 76 | 997.2 |
| 20260505202929 | 18 | 210 | 3.2 | 24.1 | 0.00 | 0.56 | 0.56 | 76 | 997.2 |
| 20260505202600 | 18 | 226 | 3.2 | 25.7 | 0.00 | 0.56 | 0.56 | 76 | 997.0 |
| 20260505202455 | 18 | 226 | 3.2 | 25.7 | 0.00 | 0.56 | 0.56 | 76 | 996.9 |
| 20260505202134 | 18 | 177 | 0.0 | 22.5 | 0.00 | 0.56 | 0.56 | 78 | 996.9 |
| 20260505202029 | 18 | 241 | 1.6 | 19.3 | 0.00 | 0.56 | 0.56 | 78 | 997.0 |
| 20260505201927 | 18 | 157 | 1.6 | 19.3 | 0.00 | 0.56 | 0.56 | 79 | 997.1 |
| 20260505201824 | 18 | 242 | 1.6 | 19.3 | 0.00 | 0.56 | 0.56 | 79 | 997.1 |
| 20260505201719 | 18 | 205 | 1.6 | 19.3 | 0.00 | 0.56 | 0.56 | 79 | 997.1 |
| 20260505201615 | 18 | 242 | 1.6 | 19.3 | 0.00 | 0.56 | 0.56 | 79 | 997.0 |
| 20260505200807 | 18 | 227 | 0.0 | 14.5 | 0.00 | 0.56 | 0.56 | 81 | 997.4 |
| 20260505200705 | 18 | 220 | 0.0 | 14.5 | 0.00 | 0.56 | 0.56 | 81 | 997.4 |
| 20260505200559 | 18 | 196 | 0.0 | 14.5 | 0.00 | 0.56 | 0.56 | 82 | 997.3 |
| 20260505200457 | 18 | 208 | 0.0 | 1.6 | 0.00 | 0.56 | 0.56 | 83 | 997.4 |
| 20260505200352 | 18 | 313 | 0.0 | 0.0 | 0.00 | 0.56 | 0.56 | 82 | 997.4 |
| 20260505200026 | 18 | 202 | 0.0 | 17.7 | 0.00 | 0.56 | 0.56 | 83 | 997.3 |
| 20260505195922 | 18 | 194 | 0.0 | 8.0 | 0.00 | 0.56 | 0.56 | 84 | 997.2 |
| 20260505195816 | 18 | 269 | 0.0 | 8.0 | 0.00 | 0.56 | 0.56 | 84 | 997.2 |
| 20260505195446 | 18 | 305 | 0.0 | 0.0 | 0.00 | 0.56 | 0.56 | 84 | 997.4 |
| 20260505195339 | 18 | 218 | 0.0 | 0.0 | 0.00 | 0.56 | 0.56 | 84 | 997.4 |
| 20260505195233 | 18 | 215 | 0.0 | 17.7 | 0.00 | 0.56 | 0.56 | 84 | 997.5 |
| 20260505195131 | 17 | 232 | 0.0 | 17.7 | 0.00 | 0.56 | 0.56 | 84 | 997.6 |
| 20260505195027 | 17 | 229 | 0.0 | 0.0 | 0.00 | 0.56 | 0.56 | 84 | 997.6 |
| 20260505194924 | 17 | 213 | 0.0 | 0.0 | 0.00 | 0.56 | 0.56 | 84 | 997.5 |
| 20260505194559 | 17 | 289 | 0.0 | 12.9 | 0.00 | 0.56 | 0.56 | 85 | 997.7 |
| 20260505194235 | 17 | 313 | 0.0 | 12.9 | 0.00 | 0.56 | 0.56 | 85 | 997.8 |
| 20260505194131 | 17 | 222 | 0.0 | 12.9 | 0.00 | 0.56 | 0.56 | 85 | 997.8 |
| 20260505194025 | 17 | 213 | 0.0 | 12.9 | 0.00 | 0.56 | 0.56 | 85 | 997.9 |
| 20260505193922 | 17 | 234 | 0.0 | 0.0 | 0.00 | 0.56 | 0.56 | 86 | 997.9 |
| 20260505193559 | 17 | 220 | 0.0 | 0.0 | 0.00 | 0.56 | 0.56 | 88 | 997.9 |
| 20260505193456 | 17 | 193 | 0.0 | 0.0 | 0.00 | 0.56 | 0.56 | 87 | 997.9 |
| 20260505193349 | 17 | 219 | 0.0 | 0.0 | 0.00 | 0.56 | 0.56 | 87 | 997.8 |
| 20260505193243 | 17 | 174 | 0.0 | 0.0 | 0.00 | 0.56 | 0.56 | 87 | 997.9 |
| 20260505192918 | 17 | 211 | 0.0 | 11.3 | 0.00 | 0.56 | 0.56 | 88 | 997.9 |
| 20260505192812 | 17 | 198 | 0.0 | 11.3 | 0.00 | 0.56 | 0.56 | 88 | 998.0 |
| 20260505192707 | 17 | 258 | 0.0 | 11.3 | 0.00 | 0.56 | 0.56 | 89 | 997.9 |
| 20260505192602 | 17 | 198 | 0.0 | 9.7 | 0.00 | 0.56 | 0.56 | 89 | 997.9 |
| 20260505192456 | 17 | 233 | 0.0 | 8.0 | 0.00 | 0.56 | 0.56 | 89 | 998.0 |
| 20260505192353 | 17 | 329 | 0.0 | 0.0 | 0.00 | 0.56 | 0.56 | 89 | 997.9 |
| 20260505191812 | 16 | 257 | 0.0 | 0.0 | 0.00 | 0.56 | 0.56 | 91 | 998.1 |
| 20260505191705 | 16 | 161 | 0.0 | 0.0 | 0.00 | 0.56 | 0.56 | 91 | 998.2 |
| 20260505191342 | 16 | 177 | 0.0 | 1.6 | 0.00 | 0.56 | 0.56 | 91 | 998.3 |
| 20260505191240 | 16 | 198 | 0.0 | 6.4 | 0.00 | 0.56 | 0.56 | 91 | 998.4 |
| 20260505190655 | 16 | 207 | 0.0 | 4.8 | 0.00 | 0.56 | 0.56 | 92 | 998.5 |
| 20260505190550 | 16 | 183 | 0.0 | 0.0 | 0.00 | 0.56 | 0.56 | 92 | 998.4 |
| 20260505190448 | 16 | 263 | 0.0 | 0.0 | 0.00 | 0.56 | 0.56 | 93 | 998.4 |
| 20260505190122 | 15 | 134 | 0.0 | 8.0 | 0.00 | 0.56 | 0.56 | 93 | 998.4 |
| 20260505190018 | 15 | 140 | 0.0 | 8.0 | 0.00 | 0.56 | 0.56 | 93 | 998.5 |
| 20260505185651 | 15 | 237 | 0.0 | 0.0 | 0.00 | 0.56 | 0.56 | 93 | 998.5 |
| 20260505185547 | 15 | 284 | 0.0 | 0.0 | 0.00 | 0.56 | 0.56 | 93 | 998.5 |
| 20260505185441 | 15 | 297 | 0.0 | 6.4 | 0.00 | 0.56 | 0.56 | 93 | 998.5 |
| 20260505185334 | 15 | 188 | 0.0 | 6.4 | 0.00 | 0.56 | 0.56 | 93 | 998.5 |
| 20260505185227 | 15 | 218 | 0.0 | 3.2 | 0.00 | 0.56 | 0.56 | 93 | 998.5 |
| 20260505185120 | 15 | 228 | 0.0 | 3.2 | 0.00 | 0.56 | 0.56 | 93 | 998.5 |
| 20260505185018 | 15 | 193 | 0.0 | 1.6 | 0.00 | 0.56 | 0.56 | 93 | 998.6 |
| 20260505184432 | 15 | 200 | 0.0 | 0.0 | 0.00 | 0.56 | 0.56 | 93 | 998.7 |
| 20260505184104 | 15 | 205 | 0.0 | 0.0 | 0.00 | 0.56 | 0.56 | 93 | 998.8 |
| 20260505183740 | 15 | 186 | 0.0 | 0.0 | 0.00 | 0.56 | 0.56 | 93 | 998.8 |
| 20260505183637 | 15 | 186 | 0.0 | 0.0 | 0.00 | 0.56 | 0.56 | 93 | 998.8 |
| 20260505183311 | 15 | 209 | 0.0 | 0.0 | 0.00 | 0.56 | 0.56 | 94 | 998.9 |
| 20260505182945 | 15 | 100 | 0.0 | 0.0 | 0.00 | 0.56 | 0.56 | 93 | 998.9 |
| 20260505182842 | 15 | 100 | 0.0 | 0.0 | 0.00 | 0.56 | 0.56 | 93 | 998.9 |
| 20260505182739 | 14 | 100 | 0.0 | 0.0 | 0.00 | 0.56 | 0.56 | 93 | 998.9 |
| 20260505182633 | 14 | 100 | 0.0 | 0.0 | 0.00 | 0.56 | 0.56 | 93 | 998.9 |
| 20260505182527 | 15 | 100 | 0.0 | 0.0 | 0.00 | 0.56 | 0.56 | 93 | 999.0 |
| 20260505182202 | 14 | 159 | 0.0 | 0.0 | 0.00 | 0.56 | 0.56 | 94 | 999.0 |
| 20260505182057 | 14 | 159 | 0.0 | 0.0 | 0.00 | 0.56 | 0.56 | 94 | 999.1 |
| 20260505181950 | 14 | 159 | 0.0 | 0.0 | 0.00 | 0.56 | 0.56 | 94 | 999.1 |
| 20260505181623 | 14 | 159 | 0.0 | 0.0 | 0.00 | 0.56 | 0.56 | 94 | 999.1 |
| 20260505181521 | 14 | 159 | 0.0 | 0.0 | 0.00 | 0.56 | 0.56 | 94 | 999.1 |
| 20260505181153 | 13 | 159 | 0.0 | 0.0 | 0.00 | 0.56 | 0.56 | 93 | 999.0 |
| 20260505181047 | 13 | 159 | 0.0 | 0.0 | 0.00 | 0.56 | 0.56 | 93 | 999.1 |
| 20260505180942 | 13 | 159 | 0.0 | 0.0 | 0.00 | 0.56 | 0.56 | 93 | 999.1 |
| 20260505180622 | 13 | 159 | 0.0 | 0.0 | 0.00 | 0.56 | 0.56 | 93 | 999.2 |
| 20260505180515 | 13 | 159 | 0.0 | 0.0 | 0.00 | 0.56 | 0.56 | 93 | 999.2 |
| 20260505180410 | 13 | 159 | 0.0 | 0.0 | 0.00 | 0.56 | 0.56 | 93 | 999.2 |
| 20260505180045 | 13 | 159 | 0.0 | 0.0 | 0.00 | 0.56 | 0.56 | 93 | 999.3 |
| 20260505175942 | 13 | 159 | 0.0 | 0.0 | 0.00 | 0.56 | 0.56 | 93 | 999.3 |
| 20260505175838 | 13 | 159 | 0.0 | 0.0 | 0.00 | 0.56 | 0.56 | 93 | 999.3 |
| 20260505175735 | 13 | 159 | 0.0 | 0.0 | 0.08 | 0.56 | 0.56 | 93 | 999.3 |
| 20260505175631 | 13 | 159 | 0.0 | 0.0 | 0.08 | 0.56 | 0.56 | 93 | 999.3 |
| 20260505175529 | 13 | 159 | 0.0 | 0.0 | 0.08 | 0.56 | 0.56 | 93 | 999.3 |
| 20260505175421 | 13 | 159 | 0.0 | 0.0 | 0.08 | 0.56 | 0.56 | 93 | 999.3 |
| 20260505175318 | 13 | 157 | 0.0 | 0.0 | 0.08 | 0.56 | 0.56 | 93 | 999.2 |
| 20260505175213 | 13 | 157 | 0.0 | 0.0 | 0.08 | 0.56 | 0.56 | 93 | 999.2 |
| 20260505175108 | 13 | 157 | 0.0 | 0.0 | 0.10 | 0.56 | 0.56 | 93 | 999.3 |
| 20260505175005 | 13 | 150 | 0.0 | 0.0 | 0.13 | 0.56 | 0.56 | 93 | 999.4 |
| 20260505174857 | 13 | 180 | 0.0 | 0.0 | 0.13 | 0.56 | 0.56 | 93 | 999.4 |
| 20260505174755 | 13 | 180 | 0.0 | 0.0 | 0.18 | 0.56 | 0.56 | 93 | 999.4 |
| 20260505174433 | 13 | 169 | 0.0 | 0.0 | 0.23 | 0.56 | 0.56 | 93 | 999.5 |
| 20260505174106 | 13 | 169 | 0.0 | 0.0 | 0.23 | 0.56 | 0.56 | 93 | 999.4 |
| 20260505174002 | 13 | 169 | 0.0 | 0.0 | 0.30 | 0.56 | 0.56 | 93 | 999.4 |
| 20260505173854 | 13 | 169 | 0.0 | 0.0 | 0.33 | 0.56 | 0.56 | 93 | 999.4 |
| 20260505173750 | 13 | 169 | 0.0 | 0.0 | 0.33 | 0.56 | 0.56 | 93 | 999.5 |
| 20260505173646 | 13 | 169 | 0.0 | 0.0 | 0.33 | 0.53 | 0.56 | 93 | 999.5 |
| 20260505173542 | 13 | 169 | 0.0 | 0.0 | 0.36 | 0.53 | 0.53 | 93 | 999.6 |
| 20260505173435 | 13 | 169 | 0.0 | 0.0 | 0.56 | 0.53 | 0.53 | 93 | 999.6 |
| 20260505173332 | 13 | 169 | 0.0 | 0.0 | 0.74 | 0.51 | 0.53 | 92 | 999.6 |
| 20260505173228 | 13 | 169 | 0.0 | 0.0 | 0.74 | 0.48 | 0.51 | 92 | 999.6 |
| 20260505173120 | 13 | 169 | 0.0 | 0.0 | 0.74 | 0.48 | 0.51 | 92 | 999.5 |
| 20260505173015 | 13 | 169 | 0.0 | 0.0 | 0.08 | 0.46 | 0.48 | 92 | 999.5 |
| 20260505172432 | 13 | 169 | 0.0 | 0.0 | 0.10 | 0.46 | 0.46 | 92 | 999.5 |
| 20260505172326 | 13 | 169 | 0.0 | 0.0 | 0.13 | 0.46 | 0.46 | 92 | 999.5 |
| 20260505171743 | 13 | 168 | 0.0 | 0.0 | 0.28 | 0.46 | 0.46 | 92 | 999.4 |
| 20260505171640 | 13 | 168 | 0.0 | 0.0 | 0.28 | 0.46 | 0.46 | 92 | 999.5 |
| 20260505171537 | 13 | 161 | 0.0 | 0.0 | 0.28 | 0.46 | 0.46 | 92 | 999.5 |
| 20260505171434 | 13 | 161 | 0.0 | 0.0 | 0.28 | 0.46 | 0.46 | 92 | 999.5 |
| 20260505171332 | 13 | 161 | 0.0 | 0.0 | 0.38 | 0.46 | 0.46 | 92 | 999.5 |
| 20260505171229 | 13 | 161 | 0.0 | 0.0 | 0.48 | 0.43 | 0.46 | 91 | 999.6 |
| 20260505170907 | 13 | 221 | 0.0 | 0.0 | 1.07 | 0.38 | 0.43 | 91 | 999.7 |
| 20260505170802 | 13 | 228 | 0.0 | 0.0 | 1.07 | 0.38 | 0.41 | 91 | 999.8 |
| 20260505170657 | 13 | 228 | 0.0 | 0.0 | 0.84 | 0.36 | 0.38 | 91 | 999.8 |
| 20260505170555 | 13 | 205 | 0.0 | 0.0 | 0.56 | 0.36 | 0.36 | 91 | 999.8 |
| 20260505170451 | 13 | 219 | 0.0 | 0.0 | 0.56 | 0.36 | 0.36 | 91 | 999.8 |
| 20260505170346 | 13 | 258 | 0.0 | 0.0 | 1.02 | 0.33 | 0.36 | 91 | 999.7 |
| 20260505170242 | 13 | 201 | 0.0 | 0.0 | 0.56 | 0.30 | 0.33 | 91 | 999.6 |
| 20260505165921 | 13 | 201 | 0.0 | 0.0 | 0.56 | 0.28 | 0.28 | 90 | 999.8 |
| 20260505165816 | 13 | 217 | 0.0 | 0.0 | 0.74 | 0.28 | 0.28 | 90 | 999.8 |
| 20260505165454 | 13 | 238 | 0.0 | 0.0 | 2.06 | 0.18 | 0.23 | 90 | 999.9 |
| 20260505165351 | 13 | 244 | 0.0 | 0.0 | 2.24 | 0.15 | 0.18 | 90 | 1000.0 |
| 20260505165246 | 13 | 246 | 0.0 | 0.0 | 0.23 | 0.15 | 0.15 | 90 | 1000.1 |
| 20260505164923 | 13 | 268 | 0.0 | 0.0 | 0.28 | 0.13 | 0.15 | 89 | 999.8 |
| 20260505164816 | 14 | 250 | 0.0 | 0.0 | 0.28 | 0.13 | 0.15 | 89 | 999.7 |
| 20260505164714 | 14 | 180 | 0.0 | 0.0 | 0.36 | 0.13 | 0.13 | 88 | 999.7 |
| 20260505164611 | 14 | 244 | 0.0 | 0.0 | 0.41 | 0.13 | 0.13 | 88 | 999.7 |
| 20260505164506 | 14 | 215 | 0.0 | 0.0 | 0.41 | 0.10 | 0.13 | 88 | 999.8 |
| 20260505164401 | 14 | 209 | 0.0 | 9.7 | 0.41 | 0.10 | 0.10 | 88 | 999.9 |
| 20260505164259 | 14 | 213 | 0.0 | 9.7 | 0.36 | 0.10 | 0.10 | 87 | 999.9 |
| 20260505164156 | 14 | 231 | 0.0 | 0.0 | 0.36 | 0.08 | 0.10 | 87 | 999.8 |
| 20260505164053 | 14 | 237 | 0.0 | 0.0 | 0.38 | 0.08 | 0.08 | 87 | 999.9 |
| 20260505163728 | 15 | 214 | 0.0 | 0.0 | 0.66 | 0.05 | 0.08 | 86 | 999.8 |
| 20260505163623 | 15 | 214 | 0.0 | 0.0 | 0.66 | 0.05 | 0.08 | 85 | 999.8 |
| 20260505163520 | 15 | 267 | 0.0 | 0.0 | 0.30 | 0.03 | 0.05 | 85 | 999.7 |
| 20260505163416 | 15 | 205 | 0.0 | 16.1 | 0.30 | 0.03 | 0.05 | 84 | 999.7 |
| 20260505163311 | 15 | 252 | 0.0 | 16.1 | 0.20 | 0.03 | 0.03 | 84 | 999.8 |
| 20260505163209 | 15 | 257 | 0.0 | 14.5 | 0.20 | 0.03 | 0.03 | 83 | 999.9 |
| 20260505163107 | 15 | 214 | 0.0 | 14.5 | 0.20 | 0.00 | 0.03 | 83 | 999.9 |
| 20260505163000 | 15 | 205 | 0.0 | 14.5 | 0.00 | 0.00 | 0.00 | 82 | 999.8 |
| 20260505162855 | 15 | 204 | 0.0 | 14.5 | 0.00 | 0.00 | 0.00 | 82 | 999.8 |
| 20260505162753 | 15 | 212 | 0.0 | 14.5 | 0.00 | 0.00 | 0.00 | 81 | 999.7 |
| 20260505162650 | 15 | 263 | 0.0 | 3.2 | 0.00 | 0.00 | 0.00 | 81 | 999.7 |
| 20260505162545 | 16 | 226 | 0.0 | 3.2 | 0.00 | 0.00 | 0.00 | 81 | 999.7 |
| 20260505162440 | 16 | 209 | 0.0 | 0.0 | 0.00 | 0.00 | 0.00 | 80 | 999.7 |
| 20260505162334 | 16 | 224 | 0.0 | 14.5 | 0.00 | 0.00 | 0.00 | 79 | 999.8 |
| 20260505162229 | 16 | 221 | 0.0 | 14.5 | 0.00 | 0.00 | 0.00 | 79 | 999.8 |
| 20260505162122 | 16 | 182 | 0.0 | 11.3 | 0.00 | 0.00 | 0.00 | 79 | 999.8 |
| 20260505162017 | 16 | 220 | 0.0 | 12.9 | 0.00 | 0.00 | 0.00 | 77 | 999.8 |
| 20260505161914 | 16 | 217 | 0.0 | 12.9 | 0.00 | 0.00 | 0.00 | 77 | 999.8 |
| 20260505161812 | 16 | 194 | 0.0 | 0.0 | 0.00 | 0.00 | 0.00 | 77 | 999.8 |
| 20260505161706 | 16 | 171 | 0.0 | 12.9 | 0.00 | 0.00 | 0.00 | 76 | 999.9 |
| 20260505161600 | 16 | 222 | 0.0 | 12.9 | 0.00 | 0.00 | 0.00 | 76 | 999.9 |
| 20260505161456 | 16 | 180 | 0.0 | 0.0 | 0.00 | 0.00 | 0.00 | 75 | 999.9 |
| 20260505161353 | 16 | 198 | 0.0 | 1.6 | 0.00 | 0.00 | 0.00 | 75 | 999.9 |
| 20260505161026 | 16 | 213 | 0.0 | 14.5 | 0.00 | 0.00 | 0.00 | 74 | 999.9 |
| 20260505160920 | 16 | 205 | 0.0 | 14.5 | 0.00 | 0.00 | 0.00 | 74 | 1000.0 |
| 20260505160814 | 16 | 196 | 0.0 | 14.5 | 0.00 | 0.00 | 0.00 | 73 | 999.9 |
| 20260505160710 | 17 | 214 | 0.0 | 14.5 | 0.00 | 0.00 | 0.00 | 73 | 1000.0 |
| 20260505160604 | 17 | 221 | 0.0 | 14.5 | 0.00 | 0.00 | 0.00 | 73 | 1000.0 |
| 20260505160501 | 17 | 211 | 0.0 | 14.5 | 0.00 | 0.00 | 0.00 | 73 | 1000.0 |
| 20260505160140 | 17 | 232 | 0.0 | 0.0 | 0.00 | 0.00 | 0.00 | 72 | 1000.0 |
| 20260505153332 | 18 | 252 | 0.0 | 8.0 | 0.00 | 0.00 | 0.00 | 60 | 999.8 |
| 20260505153224 | 18 | 288 | 0.0 | 0.0 | 0.00 | 0.00 | 0.00 | 60 | 999.8 |
| 20260505153117 | 18 | 155 | 0.0 | 0.0 | 0.00 | 0.00 | 0.00 | 60 | 999.8 |
| 20260505153013 | 18 | 218 | 0.0 | 0.0 | 0.00 | 0.00 | 0.00 | 60 | 999.8 |
| 20260505152908 | 18 | 192 | 0.0 | 0.0 | 0.00 | 0.00 | 0.00 | 60 | 999.7 |
| 20260505152803 | 18 | 248 | 0.0 | 1.6 | 0.00 | 0.00 | 0.00 | 60 | 999.8 |
| 20260505152655 | 18 | 217 | 0.0 | 1.6 | 0.00 | 0.00 | 0.00 | 60 | 999.8 |
| 20260505152550 | 18 | 222 | 0.0 | 0.0 | 0.00 | 0.00 | 0.00 | 60 | 999.8 |
| 20260505152447 | 18 | 209 | 0.0 | 0.0 | 0.00 | 0.00 | 0.00 | 60 | 999.8 |
| 20260505152344 | 18 | 189 | 0.0 | 0.0 | 0.00 | 0.00 | 0.00 | 61 | 999.8 |
| 20260505152240 | 18 | 202 | 0.0 | 0.0 | 0.00 | 0.00 | 0.00 | 61 | 999.8 |
| 20260505152135 | 17 | 213 | 0.0 | 0.0 | 0.00 | 0.00 | 0.00 | 61 | 999.8 |
| 20260505152033 | 17 | 183 | 0.0 | 0.0 | 0.00 | 0.00 | 0.00 | 62 | 999.8 |
| 20260505151926 | 17 | 140 | 0.0 | 16.1 | 0.00 | 0.00 | 0.00 | 61 | 999.8 |
| 20260505151823 | 17 | 222 | 0.0 | 16.1 | 0.00 | 0.00 | 0.00 | 61 | 999.8 |
| 20260505151717 | 17 | 163 | 0.0 | 0.0 | 0.00 | 0.00 | 0.00 | 61 | 999.8 |
| 20260505151610 | 17 | 227 | 0.0 | 0.0 | 0.00 | 0.00 | 0.00 | 62 | 999.9 |
| 20260505151506 | 17 | 235 | 0.0 | 0.0 | 0.00 | 0.00 | 0.00 | 62 | 1000.0 |
| 20260505151403 | 17 | 223 | 0.0 | 11.3 | 0.00 | 0.00 | 0.00 | 61 | 1000.0 |
| 20260505151259 | 17 | 295 | 0.0 | 11.3 | 0.00 | 0.00 | 0.00 | 61 | 1000.1 |
| 20260505151153 | 17 | 165 | 0.0 | 11.3 | 0.00 | 0.00 | 0.00 | 62 | 1000.1 |
| 20260505150350 | 17 | 278 | 0.0 | 14.5 | 0.00 | 0.03 | 0.00 | 61 | 1000.3 |
| 20260505150243 | 17 | 186 | 0.0 | 14.5 | 0.00 | 0.03 | 0.00 | 62 | 1000.3 |
| 20260505140542 | 16 | 207 | 0.0 | 0.0 | 0.00 | 0.08 | 0.00 | 60 | 1000.6 |
| 20260505140440 | 16 | 199 | 0.0 | 0.0 | 0.00 | 0.08 | 0.00 | 60 | 1000.6 |
| 20260505140334 | 16 | 242 | 0.0 | 0.0 | 0.00 | 0.08 | 0.00 | 60 | 1000.6 |
| 20260505140229 | 16 | 243 | 0.0 | 0.0 | 0.00 | 0.08 | 0.00 | 60 | 1000.6 |
| 20260505124759 | 13 | 22 | 0.0 | 0.0 | 0.00 | 0.08 | 0.00 | 68 | 1001.0 |
| 20260505124656 | 13 | 22 | 0.0 | 0.0 | 0.00 | 0.08 | 0.00 | 70 | 1001.0 |
| 20260505124549 | 13 | 22 | 0.0 | 0.0 | 0.00 | 0.08 | 0.00 | 70 | 1001.1 |
| 20260505124442 | 13 | 22 | 0.0 | 0.0 | 0.00 | 0.08 | 0.00 | 70 | 1001.1 |
| 20260505124338 | 13 | 22 | 0.0 | 0.0 | 0.00 | 0.08 | 0.00 | 71 | 1001.1 |
| 20260505124233 | 13 | 22 | 0.0 | 0.0 | 0.00 | 0.08 | 0.00 | 71 | 1001.1 |
| 20260505124127 | 13 | 22 | 0.0 | 0.0 | 0.00 | 0.08 | 0.00 | 71 | 1001.2 |
| 20260505124022 | 13 | 22 | 0.0 | 0.0 | 0.00 | 0.08 | 0.00 | 72 | 1001.2 |
| 20260505123915 | 13 | 22 | 0.0 | 0.0 | 0.00 | 0.08 | 0.00 | 72 | 1001.1 |
| 20260505123549 | 13 | 22 | 0.0 | 0.0 | 0.00 | 0.08 | 0.00 | 73 | 1001.0 |
| 20260505123443 | 13 | 22 | 0.0 | 0.0 | 0.00 | 0.08 | 0.00 | 73 | 1001.0 |
| 20260505123337 | 13 | 22 | 0.0 | 0.0 | 0.00 | 0.08 | 0.00 | 74 | 1001.1 |
| 20260505123232 | 13 | 22 | 0.0 | 0.0 | 0.00 | 0.08 | 0.00 | 74 | 1001.1 |
| 20260505123125 | 13 | 22 | 0.0 | 0.0 | 0.00 | 0.08 | 0.00 | 74 | 1001.1 |
| 20260505123022 | 13 | 22 | 0.0 | 0.0 | 0.00 | 0.08 | 0.00 | 74 | 1001.1 |
| 20260505122914 | 12 | 22 | 0.0 | 0.0 | 0.00 | 0.08 | 0.00 | 74 | 1001.1 |
| 20260505122554 | 12 | 22 | 0.0 | 0.0 | 0.00 | 0.08 | 0.00 | 76 | 1001.2 |
| 20260505122450 | 12 | 22 | 0.0 | 0.0 | 0.00 | 0.08 | 0.00 | 77 | 1001.2 |
| 20260505122348 | 12 | 22 | 0.0 | 0.0 | 0.00 | 0.08 | 0.00 | 77 | 1001.3 |
| 20260505122243 | 12 | 22 | 0.0 | 0.0 | 0.00 | 0.08 | 0.00 | 77 | 1001.3 |
| 20260505122141 | 12 | 22 | 0.0 | 0.0 | 0.00 | 0.08 | 0.00 | 77 | 1001.3 |
| 20260505121817 | 12 | 22 | 0.0 | 0.0 | 0.00 | 0.08 | 0.00 | 78 | 1001.2 |
| 20260505121711 | 12 | 22 | 0.0 | 0.0 | 0.00 | 0.08 | 0.00 | 78 | 1001.2 |
| 20260505121607 | 12 | 22 | 0.0 | 0.0 | 0.00 | 0.08 | 0.00 | 79 | 1001.2 |
| 20260505121502 | 12 | 22 | 0.0 | 0.0 | 0.00 | 0.08 | 0.00 | 79 | 1001.3 |
| 20260505121359 | 12 | 22 | 0.0 | 0.0 | 0.00 | 0.08 | 0.00 | 80 | 1001.3 |
| 20260505121255 | 12 | 22 | 0.0 | 0.0 | 0.00 | 0.08 | 0.00 | 80 | 1001.3 |
| 20260505121150 | 11 | 22 | 0.0 | 0.0 | 0.00 | 0.08 | 0.00 | 80 | 1001.3 |
| 20260505121048 | 11 | 22 | 0.0 | 0.0 | 0.00 | 0.08 | 0.00 | 80 | 1001.3 |
| 20260505120943 | 11 | 22 | 0.0 | 0.0 | 0.00 | 0.08 | 0.00 | 81 | 1001.3 |
| 20260505120837 | 11 | 22 | 0.0 | 0.0 | 0.00 | 0.08 | 0.00 | 81 | 1001.3 |
| 20260505120511 | 11 | 22 | 0.0 | 0.0 | 0.00 | 0.08 | 0.00 | 82 | 1001.4 |
| 20260505120142 | 11 | 22 | 0.0 | 0.0 | 0.00 | 0.08 | 0.00 | 82 | 1001.5 |
| 20260505120035 | 11 | 22 | 0.0 | 3.2 | 0.00 | 0.08 | 0.00 | 83 | 1001.5 |
| 20260505115930 | 11 | 22 | 0.0 | 3.2 | 0.00 | 0.08 | 0.00 | 84 | 1001.5 |
| 20260505115826 | 11 | 22 | 0.0 | 0.0 | 0.00 | 0.08 | 0.00 | 84 | 1001.6 |
| 20260505115719 | 11 | 21 | 0.0 | 0.0 | 0.00 | 0.08 | 0.00 | 84 | 1001.5 |
| 20260505115613 | 11 | 21 | 0.0 | 0.0 | 0.00 | 0.08 | 0.00 | 85 | 1001.5 |
| 20260505115244 | 10 | 21 | 0.0 | 0.0 | 0.00 | 0.08 | 0.00 | 86 | 1001.6 |
| 20260505115140 | 10 | 21 | 0.0 | 0.0 | 0.00 | 0.08 | 0.00 | 86 | 1001.6 |
| 20260505115032 | 10 | 21 | 0.0 | 0.0 | 0.00 | 0.08 | 0.00 | 86 | 1001.6 |
| 20260505114927 | 10 | 21 | 0.0 | 0.0 | 0.00 | 0.08 | 0.00 | 87 | 1001.6 |
| 20260505114821 | 10 | 21 | 0.0 | 0.0 | 0.00 | 0.08 | 0.00 | 87 | 1001.7 |
| 20260505114714 | 10 | 21 | 0.0 | 0.0 | 0.00 | 0.08 | 0.00 | 88 | 1001.6 |
| 20260505114610 | 10 | 21 | 0.0 | 0.0 | 0.00 | 0.08 | 0.00 | 88 | 1001.7 |
| 20260505114507 | 10 | 21 | 0.0 | 0.0 | 0.00 | 0.08 | 0.00 | 88 | 1001.7 |
| 20260505114145 | 10 | 21 | 0.0 | 0.0 | 0.00 | 0.08 | 0.00 | 90 | 1001.7 |
| 20260505114041 | 9 | 21 | 0.0 | 0.0 | 0.00 | 0.08 | 0.00 | 90 | 1001.7 |
| 20260505113936 | 9 | 21 | 0.0 | 0.0 | 0.00 | 0.08 | 0.00 | 90 | 1001.6 |
| 20260505113610 | 9 | 21 | 0.0 | 0.0 | 0.00 | 0.08 | 0.00 | 92 | 1001.6 |
| 20260505113507 | 8 | 21 | 0.0 | 0.0 | 0.00 | 0.08 | 0.00 | 92 | 1001.6 |
| 20260505113400 | 8 | 21 | 0.0 | 0.0 | 0.00 | 0.08 | 0.00 | 93 | 1001.6 |
| 20260505112559 | 7 | 21 | 0.0 | 0.0 | 0.00 | 0.08 | 0.00 | 94 | 1001.7 |
| 20260505112454 | 7 | 21 | 0.0 | 0.0 | 0.00 | 0.08 | 0.00 | 94 | 1001.7 |
| 20260505112130 | 7 | 21 | 0.0 | 0.0 | 0.00 | 0.08 | 0.00 | 94 | 1001.7 |
| 20260505111809 | 7 | 21 | 0.0 | 0.0 | 0.00 | 0.08 | 0.00 | 95 | 1001.8 |
| 20260505111702 | 6 | 21 | 0.0 | 0.0 | 0.00 | 0.08 | 0.00 | 95 | 1001.8 |
| 20260505111558 | 6 | 21 | 0.0 | 0.0 | 0.00 | 0.08 | 0.00 | 95 | 1001.8 |
| 20260505111453 | 6 | 21 | 0.0 | 0.0 | 0.00 | 0.08 | 0.00 | 95 | 1001.8 |
| 20260505111347 | 6 | 21 | 0.0 | 0.0 | 0.00 | 0.08 | 0.00 | 95 | 1001.8 |
| 20260505111242 | 6 | 21 | 0.0 | 0.0 | 0.00 | 0.08 | 0.00 | 95 | 1001.7 |
| 20260505111139 | 6 | 21 | 0.0 | 0.0 | 0.00 | 0.08 | 0.00 | 95 | 1001.8 |
| 20260505111035 | 6 | 21 | 0.0 | 0.0 | 0.00 | 0.08 | 0.00 | 95 | 1001.8 |
| 20260505110715 | 5 | 25 | 0.0 | 0.0 | 0.00 | 0.08 | 0.00 | 95 | 1001.7 |
| 20260505102136 | 2 | 292 | 0.0 | 0.0 | 0.00 | 0.08 | 0.00 | 94 | 1001.9 |
| 20260505102031 | 2 | 292 | 0.0 | 0.0 | 0.00 | 0.08 | 0.00 | 95 | 1001.9 |
| 20260505101929 | 2 | 292 | 0.0 | 0.0 | 0.00 | 0.08 | 0.00 | 95 | 1001.9 |
| 20260505101826 | 2 | 292 | 0.0 | 0.0 | 0.00 | 0.08 | 0.00 | 94 | 1001.9 |
| 20260505101724 | 2 | 292 | 0.0 | 0.0 | 0.00 | 0.08 | 0.00 | 94 | 1001.9 |
| 20260505101621 | 2 | 292 | 0.0 | 0.0 | 0.00 | 0.08 | 0.00 | 94 | 1001.8 |
| 20260505101518 | 2 | 292 | 0.0 | 0.0 | 0.00 | 0.08 | 0.00 | 94 | 1001.9 |
| 20260505101411 | 2 | 292 | 0.0 | 0.0 | 0.00 | 0.08 | 0.00 | 94 | 1001.9 |
| 20260505101306 | 2 | 292 | 0.0 | 0.0 | 0.00 | 0.08 | 0.00 | 94 | 1001.9 |
| 20260505101159 | 2 | 292 | 0.0 | 0.0 | 0.00 | 0.08 | 0.00 | 94 | 1002.0 |
| 20260505100837 | 2 | 292 | 0.0 | 0.0 | 0.00 | 0.08 | 0.00 | 94 | 1002.0 |
| 20260505100732 | 2 | 292 | 0.0 | 0.0 | 0.00 | 0.08 | 0.00 | 94 | 1002.0 |
| 20260505100630 | 2 | 292 | 0.0 | 0.0 | 0.00 | 0.08 | 0.00 | 94 | 1002.0 |
| 20260505100522 | 2 | 292 | 0.0 | 0.0 | 0.00 | 0.08 | 0.00 | 94 | 1002.0 |
| 20260505100415 | 2 | 292 | 0.0 | 0.0 | 0.00 | 0.08 | 0.00 | 94 | 1002.0 |
| 20260505100311 | 2 | 292 | 0.0 | 0.0 | 0.00 | 0.08 | 0.00 | 94 | 1002.0 |
| 20260505100205 | 2 | 292 | 0.0 | 0.0 | 0.00 | 0.08 | 0.00 | 94 | 1002.0 |
| 20260505095956 | 2 | 292 | 0.0 | 0.0 | 0.00 | 0.08 | 0.00 | 94 | 1002.0 |
| 20260505095849 | 2 | 292 | 0.0 | 0.0 | 0.00 | 0.08 | 0.00 | 94 | 1002.0 |
| 20260505095744 | 2 | 292 | 0.0 | 0.0 | 0.00 | 0.08 | 0.00 | 94 | 1002.0 |
| 20260505095424 | 2 | 292 | 0.0 | 0.0 | 0.00 | 0.08 | 0.00 | 94 | 1002.0 |
| 20260505095058 | 2 | 292 | 0.0 | 0.0 | 0.00 | 0.08 | 0.00 | 94 | 1002.0 |
| 20260505094953 | 1 | 292 | 0.0 | 0.0 | 0.00 | 0.08 | 0.00 | 94 | 1002.1 |
| 20260505094851 | 1 | 292 | 0.0 | 0.0 | 0.00 | 0.08 | 0.00 | 94 | 1002.0 |
| 20260505094747 | 1 | 292 | 0.0 | 0.0 | 0.00 | 0.08 | 0.00 | 94 | 1002.1 |
| 20260505094643 | 1 | 292 | 0.0 | 0.0 | 0.00 | 0.08 | 0.00 | 94 | 1002.0 |
| 20260505094319 | 1 | 292 | 0.0 | 0.0 | 0.00 | 0.08 | 0.00 | 94 | 1002.1 |
| 20260505094212 | 1 | 292 | 0.0 | 0.0 | 0.00 | 0.08 | 0.00 | 94 | 1002.1 |
| 20260505093845 | 1 | 292 | 0.0 | 0.0 | 0.00 | 0.08 | 0.00 | 94 | 1002.2 |
| 20260505093522 | 1 | 292 | 0.0 | 0.0 | 0.00 | 0.08 | 0.00 | 94 | 1002.2 |
| 20260505093416 | 1 | 292 | 0.0 | 0.0 | 0.00 | 0.08 | 0.00 | 94 | 1002.2 |
| 20260505093057 | 1 | 292 | 0.0 | 0.0 | 0.00 | 0.08 | 0.00 | 94 | 1002.3 |
| 20260505092950 | 1 | 292 | 0.0 | 0.0 | 0.00 | 0.08 | 0.00 | 94 | 1002.2 |
| 20260505092848 | 1 | 292 | 0.0 | 0.0 | 0.00 | 0.08 | 0.00 | 94 | 1002.2 |
| 20260505092527 | 1 | 292 | 0.0 | 0.0 | 0.00 | 0.08 | 0.00 | 94 | 1002.2 |
| 20260505092419 | 2 | 292 | 0.0 | 0.0 | 0.00 | 0.08 | 0.00 | 94 | 1002.2 |
| 20260505092312 | 2 | 292 | 0.0 | 0.0 | 0.00 | 0.08 | 0.00 | 94 | 1002.2 |
| 20260505092204 | 2 | 292 | 0.0 | 0.0 | 0.00 | 0.08 | 0.00 | 94 | 1002.2 |
| 20260505092101 | 1 | 292 | 0.0 | 0.0 | 0.00 | 0.08 | 0.00 | 94 | 1002.1 |
| 20260505091955 | 1 | 292 | 0.0 | 0.0 | 0.00 | 0.08 | 0.00 | 94 | 1002.1 |
| 20260505091853 | 1 | 292 | 0.0 | 0.0 | 0.00 | 0.08 | 0.00 | 94 | 1002.2 |
| 20260505091751 | 1 | 292 | 0.0 | 0.0 | 0.00 | 0.08 | 0.00 | 94 | 1002.2 |
| 20260505091649 | 2 | 292 | 0.0 | 0.0 | 0.00 | 0.08 | 0.00 | 94 | 1002.1 |
| 20260505091545 | 1 | 292 | 0.0 | 0.0 | 0.00 | 0.08 | 0.00 | 94 | 1002.2 |
| 20260505091001 | 2 | 292 | 0.0 | 0.0 | 0.00 | 0.08 | 0.00 | 94 | 1002.2 |
| 20260505090418 | 2 | 292 | 0.0 | 0.0 | 0.00 | 0.08 | 0.00 | 94 | 1002.3 |
| 20260505085832 | 2 | 292 | 0.0 | 0.0 | 0.00 | 0.08 | 0.00 | 94 | 1002.4 |
| 20260505085730 | 2 | 292 | 0.0 | 0.0 | 0.00 | 0.08 | 0.00 | 94 | 1002.3 |
| 20260505085624 | 2 | 292 | 0.0 | 0.0 | 0.00 | 0.08 | 0.00 | 94 | 1002.3 |
| 20260505085255 | 2 | 292 | 0.0 | 0.0 | 0.00 | 0.08 | 0.00 | 94 | 1002.2 |
| 20260505085148 | 2 | 292 | 0.0 | 0.0 | 0.00 | 0.08 | 0.00 | 94 | 1002.2 |
| 20260505085042 | 2 | 292 | 0.0 | 0.0 | 0.00 | 0.08 | 0.00 | 94 | 1002.2 |
| 20260505084721 | 2 | 292 | 0.0 | 0.0 | 0.00 | 0.08 | 0.00 | 93 | 1002.2 |
| 20260505084618 | 2 | 292 | 0.0 | 0.0 | 0.00 | 0.08 | 0.00 | 93 | 1002.2 |
| 20260505084513 | 2 | 292 | 0.0 | 0.0 | 0.00 | 0.08 | 0.00 | 93 | 1002.2 |
| 20260505084147 | 2 | 292 | 0.0 | 0.0 | 0.00 | 0.08 | 0.00 | 93 | 1002.2 |
| 20260505084043 | 2 | 292 | 0.0 | 0.0 | 0.00 | 0.08 | 0.00 | 93 | 1002.2 |
| 20260505083940 | 2 | 292 | 0.0 | 0.0 | 0.00 | 0.08 | 0.00 | 93 | 1002.2 |
| 20260505083835 | 2 | 292 | 0.0 | 0.0 | 0.00 | 0.08 | 0.00 | 93 | 1002.2 |
| 20260505083731 | 2 | 292 | 0.0 | 0.0 | 0.00 | 0.08 | 0.00 | 93 | 1002.2 |
| 20260505083626 | 2 | 292 | 0.0 | 0.0 | 0.00 | 0.08 | 0.00 | 93 | 1002.3 |
| 20260505083524 | 2 | 292 | 0.0 | 0.0 | 0.00 | 0.08 | 0.00 | 93 | 1002.3 |
| 20260505083418 | 2 | 292 | 0.0 | 0.0 | 0.00 | 0.08 | 0.00 | 93 | 1002.3 |
| 20260505083316 | 2 | 292 | 0.0 | 0.0 | 0.00 | 0.08 | 0.00 | 93 | 1002.2 |
| 20260505083210 | 2 | 292 | 0.0 | 0.0 | 0.00 | 0.08 | 0.00 | 93 | 1002.3 |
| 20260505083108 | 2 | 292 | 0.0 | 0.0 | 0.00 | 0.08 | 0.00 | 93 | 1002.3 |
| 20260505083006 | 2 | 292 | 0.0 | 0.0 | 0.00 | 0.08 | 0.00 | 93 | 1002.3 |
| 20260505082637 | 2 | 287 | 0.0 | 0.0 | 0.00 | 0.08 | 0.00 | 93 | 1002.4 |
| 20260505082534 | 2 | 287 | 0.0 | 0.0 | 0.00 | 0.08 | 0.00 | 93 | 1002.4 |
| 20260505082429 | 2 | 287 | 0.0 | 0.0 | 0.00 | 0.08 | 0.00 | 93 | 1002.4 |
| 20260505082327 | 2 | 287 | 0.0 | 0.0 | 0.00 | 0.08 | 0.00 | 93 | 1002.3 |
| 20260505082222 | 2 | 287 | 0.0 | 0.0 | 0.00 | 0.08 | 0.00 | 93 | 1002.4 |
| 20260505081640 | 2 | 287 | 0.0 | 0.0 | 0.00 | 0.08 | 0.00 | 93 | 1002.4 |
| 20260505081536 | 2 | 287 | 0.0 | 0.0 | 0.00 | 0.08 | 0.00 | 93 | 1002.5 |
| 20260505081434 | 2 | 287 | 0.0 | 0.0 | 0.00 | 0.08 | 0.00 | 93 | 1002.5 |
| 20260505081331 | 2 | 287 | 0.0 | 0.0 | 0.00 | 0.08 | 0.00 | 93 | 1002.5 |
| 20260505081228 | 2 | 287 | 0.0 | 0.0 | 0.00 | 0.08 | 0.00 | 93 | 1002.5 |
| 20260505081126 | 2 | 287 | 0.0 | 0.0 | 0.00 | 0.08 | 0.00 | 93 | 1002.5 |
| 20260505081019 | 2 | 287 | 0.0 | 0.0 | 0.00 | 0.08 | 0.00 | 93 | 1002.4 |
| 20260505080913 | 2 | 287 | 0.0 | 0.0 | 0.00 | 0.08 | 0.00 | 93 | 1002.5 |
| 20260505080806 | 2 | 287 | 0.0 | 0.0 | 0.00 | 0.08 | 0.00 | 93 | 1002.5 |
| 20260505080700 | 2 | 287 | 0.0 | 0.0 | 0.00 | 0.08 | 0.00 | 93 | 1002.6 |
| 20260505080557 | 2 | 287 | 0.0 | 0.0 | 0.00 | 0.08 | 0.00 | 93 | 1002.6 |
| 20260505080232 | 2 | 287 | 0.0 | 0.0 | 0.00 | 0.08 | 0.00 | 93 | 1002.6 |
| 20260505080127 | 2 | 287 | 0.0 | 0.0 | 0.00 | 0.08 | 0.00 | 93 | 1002.7 |
| 20260505080025 | 2 | 287 | 0.0 | 0.0 | 0.00 | 0.08 | 0.00 | 93 | 1002.7 |
| 20260505075922 | 2 | 287 | 0.0 | 0.0 | 0.00 | 0.08 | 0.00 | 93 | 1002.7 |
| 20260505075820 | 2 | 287 | 0.0 | 0.0 | 0.00 | 0.08 | 0.00 | 93 | 1002.7 |
| 20260505075715 | 2 | 287 | 0.0 | 0.0 | 0.00 | 0.08 | 0.00 | 93 | 1002.7 |
| 20260505075613 | 2 | 287 | 0.0 | 0.0 | 0.00 | 0.08 | 0.00 | 93 | 1002.7 |
| 20260505075509 | 2 | 287 | 0.0 | 0.0 | 0.00 | 0.08 | 0.00 | 93 | 1002.6 |
| 20260505075403 | 2 | 287 | 0.0 | 0.0 | 0.00 | 0.08 | 0.00 | 93 | 1002.6 |
| 20260505075301 | 2 | 287 | 0.0 | 0.0 | 0.00 | 0.08 | 0.00 | 93 | 1002.6 |
| 20260505075153 | 2 | 287 | 0.0 | 0.0 | 0.00 | 0.08 | 0.00 | 93 | 1002.7 |
| 20260505075048 | 2 | 287 | 0.0 | 0.0 | 0.00 | 0.08 | 0.00 | 93 | 1002.7 |
| 20260505074504 | 2 | 287 | 0.0 | 0.0 | 0.00 | 0.08 | 0.00 | 93 | 1002.6 |
| 20260505074359 | 2 | 287 | 0.0 | 0.0 | 0.00 | 0.08 | 0.00 | 93 | 1002.7 |
| 20260505074038 | 2 | 287 | 0.0 | 0.0 | 0.00 | 0.08 | 0.00 | 93 | 1002.7 |
| 20260505073933 | 2 | 287 | 0.0 | 0.0 | 0.00 | 0.08 | 0.00 | 93 | 1002.7 |
| 20260505073828 | 2 | 287 | 0.0 | 0.0 | 0.00 | 0.08 | 0.00 | 93 | 1002.7 |
| 20260505073723 | 2 | 287 | 0.0 | 0.0 | 0.00 | 0.08 | 0.00 | 93 | 1002.7 |
| 20260505073136 | 2 | 287 | 0.0 | 0.0 | 0.00 | 0.08 | 0.00 | 93 | 1002.7 |
| 20260505073033 | 2 | 287 | 0.0 | 0.0 | 0.00 | 0.08 | 0.00 | 93 | 1002.7 |
| 20260505072928 | 2 | 287 | 0.0 | 0.0 | 0.00 | 0.08 | 0.00 | 93 | 1002.7 |
| 20260505072823 | 2 | 287 | 0.0 | 0.0 | 0.00 | 0.08 | 0.00 | 93 | 1002.7 |
| 20260505072718 | 2 | 287 | 0.0 | 0.0 | 0.00 | 0.08 | 0.00 | 93 | 1002.8 |
| 20260505072615 | 2 | 287 | 0.0 | 0.0 | 0.00 | 0.08 | 0.00 | 93 | 1002.8 |
| 20260505072508 | 2 | 287 | 0.0 | 0.0 | 0.00 | 0.08 | 0.00 | 93 | 1002.8 |
| 20260505072405 | 2 | 261 | 0.0 | 0.0 | 0.00 | 0.08 | 0.00 | 93 | 1002.8 |
| 20260505072300 | 2 | 239 | 0.0 | 0.0 | 0.00 | 0.08 | 0.00 | 93 | 1002.7 |
| 20260505072155 | 2 | 103 | 0.0 | 0.0 | 0.00 | 0.08 | 0.00 | 93 | 1002.6 |
| 20260505072049 | 2 | 110 | 0.0 | 0.0 | 0.00 | 0.08 | 0.00 | 93 | 1002.6 |
| 20260505071943 | 2 | 194 | 0.0 | 0.0 | 0.00 | 0.08 | 0.00 | 93 | 1002.7 |
| 20260505071840 | 2 | 247 | 0.0 | 0.0 | 0.00 | 0.08 | 0.00 | 93 | 1002.9 |
| 20260505071735 | 3 | 244 | 0.0 | 0.0 | 0.00 | 0.08 | 0.00 | 93 | 1002.8 |
| 20260505071629 | 3 | 157 | 0.0 | 0.0 | 0.00 | 0.08 | 0.00 | 93 | 1002.7 |
| 20260505071523 | 3 | 157 | 0.0 | 0.0 | 0.00 | 0.08 | 0.00 | 93 | 1002.7 |
| 20260505071415 | 3 | 159 | 0.0 | 0.0 | 0.00 | 0.08 | 0.00 | 93 | 1002.6 |
| 20260505071308 | 3 | 245 | 0.0 | 0.0 | 0.00 | 0.08 | 0.00 | 93 | 1002.7 |
| 20260505071204 | 3 | 245 | 0.0 | 0.0 | 0.00 | 0.08 | 0.00 | 93 | 1002.8 |
| 20260505071059 | 3 | 245 | 0.0 | 0.0 | 0.00 | 0.08 | 0.00 | 92 | 1002.8 |
| 20260505070955 | 3 | 245 | 0.0 | 0.0 | 0.00 | 0.08 | 0.00 | 92 | 1002.7 |
| 20260505070852 | 3 | 245 | 0.0 | 0.0 | 0.00 | 0.08 | 0.00 | 92 | 1002.7 |
| 20260505070308 | 3 | 34 | 0.0 | 0.0 | 0.00 | 0.08 | 0.00 | 92 | 1002.6 |
| 20260505070201 | 3 | 17 | 0.0 | 0.0 | 0.00 | 0.08 | 0.00 | 92 | 1002.7 |
| 20260505070056 | 3 | 17 | 0.0 | 0.0 | 0.00 | 0.08 | 0.00 | 92 | 1002.8 |
| 20260505065949 | 3 | 17 | 0.0 | 0.0 | 0.00 | 0.08 | 0.00 | 92 | 1002.8 |
| 20260505065846 | 3 | 17 | 0.0 | 0.0 | 0.00 | 0.08 | 0.00 | 92 | 1002.7 |
| 20260505065743 | 3 | 17 | 0.0 | 0.0 | 0.00 | 0.08 | 0.00 | 92 | 1002.8 |
| 20260505065635 | 3 | 17 | 0.0 | 0.0 | 0.00 | 0.08 | 0.00 | 92 | 1002.8 |
| 20260505065314 | 3 | 19 | 0.0 | 0.0 | 0.00 | 0.08 | 0.00 | 92 | 1003.0 |
| 20260505065207 | 3 | 23 | 0.0 | 0.0 | 0.00 | 0.08 | 0.00 | 92 | 1003.0 |
| 20260505065101 | 3 | 23 | 0.0 | 0.0 | 0.00 | 0.08 | 0.00 | 92 | 1002.9 |
| 20260505064733 | 3 | 23 | 0.0 | 0.0 | 0.00 | 0.08 | 0.00 | 92 | 1002.9 |
| 20260505064629 | 3 | 23 | 0.0 | 0.0 | 0.00 | 0.08 | 0.00 | 92 | 1003.0 |
| 20260505064524 | 3 | 23 | 0.0 | 0.0 | 0.00 | 0.08 | 0.00 | 92 | 1002.9 |
| 20260505064200 | 3 | 23 | 0.0 | 0.0 | 0.00 | 0.08 | 0.00 | 92 | 1003.0 |
| 20260505064058 | 3 | 23 | 0.0 | 0.0 | 0.00 | 0.08 | 0.00 | 92 | 1003.0 |
| 20260505063953 | 3 | 23 | 0.0 | 0.0 | 0.00 | 0.08 | 0.00 | 92 | 1003.1 |
| 20260505063408 | 3 | 23 | 0.0 | 0.0 | 0.00 | 0.08 | 0.00 | 92 | 1003.0 |
| 20260505063304 | 3 | 23 | 0.0 | 0.0 | 0.00 | 0.08 | 0.00 | 92 | 1003.0 |
| 20260505063158 | 3 | 23 | 0.0 | 0.0 | 0.00 | 0.08 | 0.00 | 92 | 1003.0 |
| 20260505063053 | 3 | 23 | 0.0 | 0.0 | 0.00 | 0.08 | 0.00 | 92 | 1003.1 |
| 20260505062951 | 3 | 23 | 0.0 | 0.0 | 0.00 | 0.08 | 0.00 | 91 | 1003.1 |
| 20260505062844 | 3 | 23 | 0.0 | 0.0 | 0.00 | 0.08 | 0.00 | 91 | 1003.1 |
| 20260505062740 | 3 | 23 | 0.0 | 0.0 | 0.00 | 0.08 | 0.00 | 91 | 1003.1 |
| 20260505062150 | 3 | 23 | 0.0 | 0.0 | 0.00 | 0.08 | 0.00 | 91 | 1003.2 |
| 20260505061825 | 4 | 23 | 0.0 | 0.0 | 0.00 | 0.08 | 0.00 | 91 | 1003.3 |
| 20260505061459 | 4 | 23 | 0.0 | 0.0 | 0.00 | 0.08 | 0.00 | 91 | 1003.3 |
| 20260505061354 | 4 | 23 | 0.0 | 0.0 | 0.00 | 0.08 | 0.00 | 91 | 1003.3 |
| 20260505061249 | 4 | 23 | 0.0 | 0.0 | 0.00 | 0.08 | 0.00 | 91 | 1003.4 |
| 20260505061145 | 4 | 23 | 0.0 | 0.0 | 0.00 | 0.08 | 0.00 | 91 | 1003.4 |
| 20260505061042 | 4 | 23 | 0.0 | 0.0 | 0.00 | 0.08 | 0.00 | 91 | 1003.4 |
| 20260505060935 | 4 | 23 | 0.0 | 0.0 | 0.00 | 0.08 | 0.00 | 91 | 1003.4 |
| 20260505060831 | 4 | 23 | 0.0 | 0.0 | 0.00 | 0.08 | 0.00 | 91 | 1003.4 |
| 20260505060725 | 4 | 23 | 0.0 | 0.0 | 0.00 | 0.08 | 0.00 | 91 | 1003.4 |
| 20260505060618 | 4 | 23 | 0.0 | 0.0 | 0.00 | 0.08 | 0.00 | 91 | 1003.4 |
| 20260505060514 | 4 | 23 | 0.0 | 0.0 | 0.00 | 0.08 | 0.00 | 91 | 1003.5 |
| 20260505060411 | 4 | 23 | 0.0 | 0.0 | 0.00 | 0.08 | 0.00 | 91 | 1003.5 |
| 20260505060304 | 4 | 23 | 0.0 | 0.0 | 0.00 | 0.08 | 0.00 | 91 | 1003.6 |
| 20260505055942 | 5 | 23 | 0.0 | 0.0 | 0.00 | 0.08 | 0.00 | 91 | 1003.6 |
| 20260505055840 | 5 | 23 | 0.0 | 0.0 | 0.00 | 0.08 | 0.00 | 91 | 1003.6 |
| 20260505055737 | 5 | 23 | 0.0 | 0.0 | 0.00 | 0.08 | 0.00 | 91 | 1003.6 |
| 20260505055633 | 5 | 23 | 0.0 | 0.0 | 0.00 | 0.08 | 0.00 | 91 | 1003.6 |
| 20260505055529 | 5 | 23 | 0.0 | 0.0 | 0.00 | 0.08 | 0.00 | 91 | 1003.7 |
| 20260505055427 | 5 | 23 | 0.0 | 0.0 | 0.00 | 0.08 | 0.00 | 91 | 1003.7 |
| 20260505055320 | 5 | 23 | 0.0 | 0.0 | 0.00 | 0.08 | 0.00 | 91 | 1003.7 |
| 20260505055216 | 5 | 23 | 0.0 | 0.0 | 0.00 | 0.08 | 0.00 | 91 | 1003.7 |
| 20260505055108 | 5 | 23 | 0.0 | 0.0 | 0.00 | 0.08 | 0.00 | 91 | 1003.8 |
| 20260505055004 | 5 | 23 | 0.0 | 0.0 | 0.00 | 0.08 | 0.00 | 91 | 1003.8 |
| 20260505054902 | 5 | 23 | 0.0 | 0.0 | 0.00 | 0.08 | 0.00 | 91 | 1003.8 |
| 20260505054800 | 5 | 23 | 0.0 | 0.0 | 0.00 | 0.08 | 0.00 | 91 | 1003.8 |
| 20260505054658 | 5 | 23 | 0.0 | 0.0 | 0.00 | 0.08 | 0.00 | 91 | 1003.9 |
| 20260505054554 | 5 | 23 | 0.0 | 0.0 | 0.00 | 0.08 | 0.00 | 91 | 1003.8 |
| 20260505054448 | 5 | 23 | 0.0 | 0.0 | 0.00 | 0.08 | 0.00 | 91 | 1003.9 |
| 20260505054121 | 5 | 23 | 0.0 | 0.0 | 0.00 | 0.08 | 0.00 | 91 | 1003.9 |
| 20260505054017 | 5 | 23 | 0.0 | 0.0 | 0.00 | 0.08 | 0.00 | 91 | 1003.9 |
| 20260505053910 | 5 | 23 | 0.0 | 0.0 | 0.00 | 0.08 | 0.00 | 91 | 1003.9 |
| 20260505053807 | 5 | 23 | 0.0 | 0.0 | 0.00 | 0.08 | 0.00 | 91 | 1003.9 |
| 20260505053703 | 5 | 23 | 0.0 | 0.0 | 0.00 | 0.08 | 0.00 | 91 | 1003.9 |
| 20260505053340 | 5 | 23 | 0.0 | 0.0 | 0.00 | 0.08 | 0.00 | 91 | 1003.9 |
| 20260505053236 | 5 | 23 | 0.0 | 0.0 | 0.00 | 0.08 | 0.00 | 91 | 1003.9 |
| 20260505053134 | 5 | 23 | 0.0 | 0.0 | 0.00 | 0.08 | 0.00 | 91 | 1003.9 |
| 20260505053032 | 5 | 23 | 0.0 | 0.0 | 0.00 | 0.08 | 0.00 | 91 | 1003.9 |
| 20260505052925 | 5 | 23 | 0.0 | 0.0 | 0.00 | 0.08 | 0.00 | 91 | 1003.9 |
| 20260505052823 | 5 | 23 | 0.0 | 0.0 | 0.00 | 0.08 | 0.00 | 91 | 1003.9 |
| 20260505052716 | 5 | 23 | 0.0 | 0.0 | 0.00 | 0.08 | 0.00 | 91 | 1004.0 |
| 20260505052612 | 5 | 23 | 0.0 | 0.0 | 0.00 | 0.08 | 0.00 | 91 | 1004.0 |
| 20260505052510 | 5 | 23 | 0.0 | 0.0 | 0.00 | 0.08 | 0.00 | 91 | 1004.0 |
| 20260505052404 | 5 | 23 | 0.0 | 0.0 | 0.00 | 0.08 | 0.00 | 91 | 1004.1 |
| 20260505052301 | 5 | 23 | 0.0 | 0.0 | 0.00 | 0.08 | 0.00 | 91 | 1004.1 |
| 20260505052159 | 5 | 23 | 0.0 | 0.0 | 0.00 | 0.08 | 0.00 | 91 | 1004.1 |
| 20260505051357 | 5 | 24 | 0.0 | 0.0 | 0.00 | 0.08 | 0.00 | 91 | 1004.1 |
| 20260505051255 | 5 | 24 | 0.0 | 0.0 | 0.00 | 0.08 | 0.00 | 91 | 1004.1 |
| 20260505051153 | 5 | 24 | 0.0 | 0.0 | 0.00 | 0.08 | 0.00 | 91 | 1004.1 |
| 20260505051049 | 5 | 24 | 0.0 | 0.0 | 0.00 | 0.08 | 0.00 | 91 | 1004.2 |
| 20260505050944 | 5 | 24 | 0.0 | 0.0 | 0.00 | 0.08 | 0.00 | 91 | 1004.2 |
| 20260505050838 | 5 | 24 | 0.0 | 0.0 | 0.00 | 0.08 | 0.00 | 91 | 1004.2 |
| 20260505050736 | 5 | 24 | 0.0 | 0.0 | 0.00 | 0.08 | 0.00 | 91 | 1004.2 |
| 20260505050632 | 5 | 24 | 0.0 | 0.0 | 0.00 | 0.08 | 0.00 | 91 | 1004.2 |
| 20260505050525 | 5 | 24 | 0.0 | 0.0 | 0.00 | 0.08 | 0.00 | 91 | 1004.2 |
| 20260505050419 | 5 | 19 | 0.0 | 0.0 | 0.00 | 0.08 | 0.00 | 91 | 1004.2 |
| 20260505050314 | 5 | 19 | 0.0 | 0.0 | 0.00 | 0.08 | 0.00 | 91 | 1004.2 |
| 20260505050207 | 5 | 19 | 0.0 | 0.0 | 0.00 | 0.08 | 0.00 | 91 | 1004.2 |
| 20260505050104 | 5 | 19 | 0.0 | 0.0 | 0.00 | 0.08 | 0.00 | 91 | 1004.3 |
| 20260505041741 | 4 | 344 | 0.0 | 0.0 | 0.00 | 0.08 | 0.00 | 92 | 1004.9 |
| 20260505041638 | 4 | 336 | 0.0 | 0.0 | 0.00 | 0.08 | 0.00 | 92 | 1004.9 |
| 20260505041535 | 4 | 336 | 0.0 | 0.0 | 0.00 | 0.08 | 0.00 | 92 | 1004.9 |
| 20260505041429 | 4 | 336 | 0.0 | 0.0 | 0.00 | 0.08 | 0.00 | 92 | 1004.9 |
| 20260505041325 | 4 | 336 | 0.0 | 0.0 | 0.00 | 0.08 | 0.00 | 92 | 1004.8 |
| 20260505041220 | 4 | 336 | 0.0 | 0.0 | 0.00 | 0.08 | 0.00 | 92 | 1004.8 |
| 20260505041112 | 4 | 336 | 0.0 | 0.0 | 0.00 | 0.08 | 0.00 | 92 | 1004.8 |
| 20260505041009 | 5 | 336 | 0.0 | 0.0 | 0.00 | 0.08 | 0.00 | 92 | 1004.7 |
| 20260505040645 | 5 | 336 | 0.0 | 0.0 | 0.00 | 0.08 | 0.00 | 92 | 1004.6 |
| 20260505040538 | 4 | 336 | 0.0 | 0.0 | 0.00 | 0.08 | 0.00 | 92 | 1004.6 |
| 20260505040433 | 4 | 336 | 0.0 | 0.0 | 0.00 | 0.08 | 0.00 | 92 | 1004.6 |
| 20260505040327 | 4 | 336 | 0.0 | 0.0 | 0.00 | 0.08 | 0.00 | 92 | 1004.6 |
| 20260505040223 | 4 | 336 | 0.0 | 0.0 | 0.00 | 0.08 | 0.00 | 92 | 1004.6 |
| 20260505040119 | 4 | 336 | 0.0 | 0.0 | 0.00 | 0.08 | 0.00 | 92 | 1004.6 |
| 20260505040017 | 4 | 336 | 0.0 | 0.0 | 0.00 | 0.08 | 0.00 | 92 | 1004.6 |
| 20260505035651 | 4 | 336 | 0.0 | 0.0 | 0.00 | 0.08 | 0.08 | 91 | 1004.6 |
| 20260505035547 | 4 | 336 | 0.0 | 0.0 | 0.00 | 0.08 | 0.08 | 92 | 1004.6 |
| 20260505035227 | 4 | 336 | 0.0 | 0.0 | 0.00 | 0.08 | 0.08 | 91 | 1004.8 |
| 20260505035123 | 4 | 336 | 0.0 | 0.0 | 0.00 | 0.08 | 0.08 | 91 | 1004.8 |
| 20260505034758 | 4 | 336 | 0.0 | 0.0 | 0.00 | 0.08 | 0.08 | 91 | 1004.7 |
| 20260505034432 | 4 | 336 | 0.0 | 0.0 | 0.00 | 0.08 | 0.08 | 91 | 1004.7 |
| 20260505034325 | 4 | 336 | 0.0 | 0.0 | 0.00 | 0.08 | 0.08 | 91 | 1004.8 |
| 20260505034220 | 4 | 336 | 0.0 | 0.0 | 0.00 | 0.08 | 0.08 | 91 | 1004.8 |
| 20260505034117 | 4 | 336 | 0.0 | 0.0 | 0.00 | 0.08 | 0.08 | 92 | 1004.8 |
| 20260505034009 | 5 | 336 | 0.0 | 0.0 | 0.00 | 0.08 | 0.08 | 92 | 1004.8 |
| 20260505033905 | 5 | 336 | 0.0 | 0.0 | 0.00 | 0.08 | 0.08 | 91 | 1004.8 |
| 20260505033803 | 5 | 336 | 0.0 | 0.0 | 0.00 | 0.08 | 0.08 | 91 | 1004.8 |
| 20260505033440 | 5 | 336 | 0.0 | 0.0 | 0.00 | 0.08 | 0.08 | 92 | 1004.9 |
| 20260505033115 | 5 | 336 | 0.0 | 0.0 | 0.00 | 0.08 | 0.08 | 92 | 1004.9 |
| 20260505032753 | 5 | 336 | 0.0 | 0.0 | 0.00 | 0.08 | 0.08 | 92 | 1004.9 |
| 20260505032647 | 5 | 336 | 0.0 | 0.0 | 0.00 | 0.08 | 0.08 | 92 | 1004.9 |
| 20260505032543 | 5 | 336 | 0.0 | 0.0 | 0.00 | 0.08 | 0.08 | 92 | 1004.8 |
| 20260505032436 | 5 | 336 | 0.0 | 0.0 | 0.00 | 0.08 | 0.08 | 92 | 1004.9 |
| 20260505032331 | 5 | 336 | 0.0 | 0.0 | 0.00 | 0.08 | 0.08 | 92 | 1004.8 |
| 20260505032225 | 5 | 336 | 0.0 | 0.0 | 0.00 | 0.08 | 0.08 | 92 | 1004.8 |
| 20260505031901 | 5 | 336 | 0.0 | 0.0 | 0.00 | 0.08 | 0.08 | 92 | 1004.9 |
| 20260505031756 | 5 | 336 | 0.0 | 0.0 | 0.00 | 0.08 | 0.08 | 92 | 1004.9 |
| 20260505031650 | 5 | 336 | 0.0 | 0.0 | 0.00 | 0.08 | 0.08 | 92 | 1004.9 |
| 20260505031544 | 5 | 336 | 0.0 | 0.0 | 0.00 | 0.08 | 0.08 | 92 | 1004.9 |
| 20260505030956 | 5 | 336 | 0.0 | 0.0 | 0.00 | 0.08 | 0.08 | 92 | 1005.0 |
| 20260505030853 | 5 | 336 | 0.0 | 0.0 | 0.00 | 0.08 | 0.08 | 92 | 1005.0 |
| 20260505030748 | 5 | 336 | 0.0 | 0.0 | 0.00 | 0.08 | 0.08 | 92 | 1005.0 |
| 20260505030643 | 5 | 336 | 0.0 | 0.0 | 0.00 | 0.08 | 0.08 | 92 | 1004.9 |
| 20260505030540 | 5 | 336 | 0.0 | 0.0 | 0.00 | 0.08 | 0.08 | 92 | 1005.0 |
| 20260505030434 | 5 | 336 | 0.0 | 0.0 | 0.00 | 0.08 | 0.08 | 92 | 1005.0 |
| 20260505030327 | 4 | 336 | 0.0 | 0.0 | 0.00 | 0.08 | 0.08 | 92 | 1005.0 |
| 20260505030223 | 4 | 336 | 0.0 | 0.0 | 0.00 | 0.08 | 0.08 | 92 | 1005.0 |
| 20260505030117 | 4 | 336 | 0.0 | 0.0 | 0.00 | 0.08 | 0.08 | 92 | 1005.0 |
| 20260505030012 | 4 | 336 | 0.0 | 0.0 | 0.00 | 0.08 | 0.08 | 92 | 1005.0 |
| 20260505025906 | 4 | 336 | 0.0 | 0.0 | 0.00 | 0.08 | 0.08 | 92 | 1005.0 |
| 20260505025540 | 4 | 336 | 0.0 | 0.0 | 0.00 | 0.08 | 0.08 | 92 | 1005.0 |
| 20260505025439 | 4 | 336 | 0.0 | 0.0 | 0.00 | 0.08 | 0.08 | 92 | 1004.9 |
| 20260505025331 | 4 | 336 | 0.0 | 0.0 | 0.00 | 0.08 | 0.08 | 91 | 1005.0 |
| 20260505025226 | 4 | 336 | 0.0 | 0.0 | 0.00 | 0.08 | 0.08 | 91 | 1005.0 |
| 20260505025123 | 4 | 336 | 0.0 | 0.0 | 0.00 | 0.08 | 0.08 | 92 | 1005.0 |
| 20260505025018 | 4 | 336 | 0.0 | 0.0 | 0.00 | 0.08 | 0.08 | 92 | 1005.0 |
| 20260505024915 | 4 | 336 | 0.0 | 0.0 | 0.00 | 0.08 | 0.08 | 92 | 1004.9 |
| 20260505024813 | 4 | 336 | 0.0 | 0.0 | 0.00 | 0.08 | 0.08 | 92 | 1005.0 |
| 20260505024709 | 4 | 336 | 0.0 | 0.0 | 0.00 | 0.08 | 0.08 | 92 | 1005.1 |
| 20260505024603 | 4 | 336 | 0.0 | 0.0 | 0.00 | 0.08 | 0.08 | 92 | 1005.0 |
| 20260505024237 | 4 | 336 | 0.0 | 0.0 | 0.00 | 0.08 | 0.08 | 92 | 1005.1 |
| 20260505024133 | 4 | 309 | 0.0 | 0.0 | 0.00 | 0.08 | 0.08 | 92 | 1005.1 |
| 20260505024026 | 4 | 309 | 0.0 | 0.0 | 0.00 | 0.08 | 0.08 | 92 | 1005.1 |
| 20260505023701 | 4 | 309 | 0.0 | 0.0 | 0.00 | 0.08 | 0.08 | 91 | 1005.3 |
| 20260505023338 | 4 | 309 | 0.0 | 0.0 | 0.00 | 0.08 | 0.08 | 91 | 1005.3 |
| 20260505023014 | 4 | 309 | 0.0 | 0.0 | 0.00 | 0.08 | 0.08 | 91 | 1005.3 |
| 20260505022908 | 4 | 309 | 0.0 | 0.0 | 0.00 | 0.08 | 0.08 | 91 | 1005.3 |
| 20260505022801 | 4 | 309 | 0.0 | 0.0 | 0.00 | 0.08 | 0.08 | 91 | 1005.3 |
| 20260505022656 | 4 | 309 | 0.0 | 0.0 | 0.00 | 0.08 | 0.08 | 91 | 1005.3 |
| 20260505022554 | 4 | 309 | 0.0 | 0.0 | 0.00 | 0.08 | 0.08 | 91 | 1005.3 |
| 20260505022230 | 4 | 309 | 0.0 | 0.0 | 0.00 | 0.08 | 0.08 | 91 | 1005.4 |
| 20260505022126 | 4 | 309 | 0.0 | 0.0 | 0.00 | 0.08 | 0.08 | 91 | 1005.4 |
| 20260505022018 | 4 | 309 | 0.0 | 0.0 | 0.00 | 0.08 | 0.08 | 91 | 1005.4 |
| 20260505021915 | 4 | 309 | 0.0 | 0.0 | 0.00 | 0.08 | 0.08 | 91 | 1005.4 |
| 20260505021551 | 4 | 309 | 0.0 | 0.0 | 0.00 | 0.08 | 0.08 | 91 | 1005.4 |
| 20260505021443 | 4 | 309 | 0.0 | 0.0 | 0.00 | 0.08 | 0.08 | 91 | 1005.4 |
| 20260505021337 | 4 | 309 | 0.0 | 0.0 | 0.00 | 0.08 | 0.08 | 91 | 1005.5 |
| 20260505021231 | 4 | 309 | 0.0 | 0.0 | 0.00 | 0.08 | 0.08 | 91 | 1005.5 |
| 20260505021129 | 4 | 309 | 0.0 | 0.0 | 0.00 | 0.08 | 0.08 | 91 | 1005.4 |
| 20260505021026 | 4 | 309 | 0.0 | 0.0 | 0.00 | 0.08 | 0.08 | 91 | 1005.4 |
| 20260505020923 | 4 | 309 | 0.0 | 0.0 | 0.00 | 0.08 | 0.08 | 91 | 1005.4 |
| 20260505020819 | 4 | 309 | 0.0 | 0.0 | 0.00 | 0.08 | 0.08 | 91 | 1005.4 |
| 20260505020454 | 4 | 309 | 0.0 | 0.0 | 0.00 | 0.08 | 0.08 | 91 | 1005.4 |
| 20260505020347 | 4 | 309 | 0.0 | 0.0 | 0.00 | 0.08 | 0.08 | 91 | 1005.4 |
| 20260505020240 | 4 | 309 | 0.0 | 0.0 | 0.00 | 0.08 | 0.08 | 91 | 1005.4 |
| 20260505020133 | 4 | 309 | 0.0 | 0.0 | 0.00 | 0.08 | 0.08 | 91 | 1005.4 |
| 20260505020028 | 4 | 309 | 0.0 | 0.0 | 0.00 | 0.08 | 0.08 | 91 | 1005.4 |
| 20260505015922 | 4 | 309 | 0.0 | 0.0 | 0.00 | 0.08 | 0.08 | 91 | 1005.4 |
| 20260505015817 | 4 | 309 | 0.0 | 0.0 | 0.00 | 0.08 | 0.08 | 91 | 1005.4 |
| 20260505015713 | 4 | 309 | 0.0 | 0.0 | 0.00 | 0.08 | 0.08 | 91 | 1005.4 |
| 20260505015612 | 4 | 309 | 0.0 | 0.0 | 0.00 | 0.08 | 0.08 | 91 | 1005.4 |
| 20260505015248 | 4 | 308 | 0.0 | 0.0 | 0.00 | 0.08 | 0.08 | 90 | 1005.4 |
| 20260505015144 | 4 | 299 | 0.0 | 0.0 | 0.00 | 0.08 | 0.08 | 90 | 1005.4 |
| 20260505015038 | 4 | 299 | 0.0 | 0.0 | 0.00 | 0.08 | 0.08 | 90 | 1005.4 |
| 20260505014709 | 4 | 299 | 0.0 | 0.0 | 0.00 | 0.08 | 0.08 | 90 | 1005.4 |
| 20260505014342 | 5 | 299 | 0.0 | 0.0 | 0.00 | 0.08 | 0.08 | 90 | 1005.5 |
| 20260505014235 | 5 | 299 | 0.0 | 0.0 | 0.00 | 0.08 | 0.08 | 90 | 1005.6 |
| 20260505014133 | 5 | 299 | 0.0 | 0.0 | 0.00 | 0.08 | 0.08 | 90 | 1005.5 |
| 20260505014029 | 5 | 299 | 0.0 | 0.0 | 0.00 | 0.08 | 0.08 | 90 | 1005.5 |
| 20260505013927 | 5 | 299 | 0.0 | 0.0 | 0.00 | 0.08 | 0.08 | 90 | 1005.5 |
| 20260505013822 | 5 | 299 | 0.0 | 0.0 | 0.00 | 0.08 | 0.08 | 90 | 1005.5 |
| 20260505013719 | 5 | 299 | 0.0 | 0.0 | 0.00 | 0.08 | 0.08 | 90 | 1005.5 |
| 20260505013615 | 5 | 299 | 0.0 | 0.0 | 0.00 | 0.08 | 0.08 | 90 | 1005.5 |
| 20260505013508 | 5 | 299 | 0.0 | 0.0 | 0.00 | 0.08 | 0.08 | 90 | 1005.5 |
| 20260505013404 | 5 | 299 | 0.0 | 0.0 | 0.00 | 0.08 | 0.08 | 90 | 1005.5 |
| 20260505013303 | 5 | 299 | 0.0 | 0.0 | 0.00 | 0.08 | 0.08 | 90 | 1005.5 |
| 20260505013200 | 5 | 299 | 0.0 | 0.0 | 0.00 | 0.08 | 0.08 | 90 | 1005.6 |
| 20260505012832 | 5 | 241 | 0.0 | 0.0 | 0.00 | 0.08 | 0.08 | 89 | 1005.6 |
| 20260505012727 | 5 | 241 | 0.0 | 0.0 | 0.00 | 0.08 | 0.08 | 89 | 1005.6 |
| 20260505012623 | 5 | 241 | 0.0 | 0.0 | 0.00 | 0.08 | 0.08 | 89 | 1005.7 |
| 20260505012522 | 5 | 241 | 0.0 | 0.0 | 0.00 | 0.08 | 0.08 | 89 | 1005.7 |
| 20260505012418 | 5 | 241 | 0.0 | 0.0 | 0.00 | 0.08 | 0.08 | 89 | 1005.7 |
| 20260505012052 | 5 | 241 | 0.0 | 0.0 | 0.00 | 0.08 | 0.08 | 89 | 1005.7 |
| 20260505011948 | 5 | 241 | 0.0 | 0.0 | 0.00 | 0.08 | 0.08 | 89 | 1005.6 |
| 20260505011843 | 5 | 241 | 0.0 | 0.0 | 0.00 | 0.08 | 0.08 | 89 | 1005.7 |
| 20260505011738 | 5 | 241 | 0.0 | 0.0 | 0.00 | 0.08 | 0.08 | 89 | 1005.6 |
| 20260505011634 | 5 | 241 | 0.0 | 0.0 | 0.00 | 0.08 | 0.08 | 89 | 1005.6 |
| 20260505011530 | 5 | 241 | 0.0 | 0.0 | 0.00 | 0.08 | 0.08 | 89 | 1005.6 |
| 20260505011426 | 5 | 241 | 0.0 | 0.0 | 0.00 | 0.08 | 0.08 | 89 | 1005.7 |
| 20260505011100 | 5 | 241 | 0.0 | 0.0 | 0.00 | 0.08 | 0.08 | 88 | 1005.7 |
| 20260505010954 | 5 | 241 | 0.0 | 0.0 | 0.00 | 0.08 | 0.08 | 88 | 1005.6 |
| 20260505010848 | 5 | 241 | 0.0 | 0.0 | 0.00 | 0.08 | 0.08 | 88 | 1005.7 |
| 20260505010744 | 5 | 241 | 0.0 | 0.0 | 0.00 | 0.08 | 0.08 | 88 | 1005.7 |
| 20260505010638 | 5 | 241 | 0.0 | 0.0 | 0.00 | 0.08 | 0.08 | 88 | 1005.7 |
| 20260505010313 | 5 | 241 | 0.0 | 0.0 | 0.00 | 0.08 | 0.08 | 88 | 1005.7 |
| 20260505010206 | 5 | 241 | 0.0 | 0.0 | 0.00 | 0.08 | 0.08 | 88 | 1005.7 |
| 20260505005958 | 5 | 241 | 0.0 | 0.0 | 0.00 | 0.08 | 0.08 | 88 | 1005.7 |
| 20260505005850 | 5 | 241 | 0.0 | 0.0 | 0.00 | 0.08 | 0.08 | 88 | 1005.7 |
| 20260505005746 | 5 | 241 | 0.0 | 0.0 | 0.00 | 0.08 | 0.08 | 88 | 1005.7 |
| 20260505005639 | 5 | 241 | 0.0 | 0.0 | 0.00 | 0.08 | 0.08 | 88 | 1005.6 |
| 20260505005533 | 5 | 241 | 0.0 | 0.0 | 0.00 | 0.08 | 0.08 | 88 | 1005.6 |
| 20260505005209 | 5 | 241 | 0.0 | 0.0 | 0.00 | 0.08 | 0.08 | 88 | 1005.6 |
| 20260505005105 | 5 | 241 | 0.0 | 0.0 | 0.00 | 0.08 | 0.08 | 88 | 1005.6 |
| 20260505005002 | 5 | 241 | 0.0 | 0.0 | 0.00 | 0.08 | 0.08 | 87 | 1005.6 |
| 20260505004856 | 5 | 241 | 0.0 | 0.0 | 0.00 | 0.08 | 0.08 | 87 | 1005.5 |
| 20260505004527 | 5 | 241 | 0.0 | 0.0 | 0.00 | 0.08 | 0.08 | 87 | 1005.5 |
| 20260505004422 | 5 | 241 | 0.0 | 0.0 | 0.00 | 0.08 | 0.08 | 87 | 1005.5 |
| 20260505004315 | 6 | 241 | 0.0 | 0.0 | 0.00 | 0.08 | 0.08 | 86 | 1005.5 |
| 20260505004208 | 6 | 241 | 0.0 | 0.0 | 0.00 | 0.08 | 0.08 | 86 | 1005.5 |
| 20260505004104 | 6 | 241 | 0.0 | 0.0 | 0.00 | 0.08 | 0.08 | 86 | 1005.5 |
| 20260505004001 | 6 | 241 | 0.0 | 0.0 | 0.00 | 0.08 | 0.08 | 86 | 1005.4 |
| 20260505003854 | 6 | 241 | 0.0 | 0.0 | 0.00 | 0.08 | 0.08 | 86 | 1005.4 |
| 20260505003750 | 6 | 241 | 0.0 | 0.0 | 0.00 | 0.08 | 0.08 | 86 | 1005.4 |
| 20260505003644 | 6 | 241 | 0.0 | 0.0 | 0.00 | 0.08 | 0.08 | 86 | 1005.4 |
| 20260505003536 | 6 | 241 | 0.0 | 0.0 | 0.00 | 0.08 | 0.08 | 86 | 1005.4 |
| 20260505003432 | 6 | 241 | 0.0 | 0.0 | 0.00 | 0.08 | 0.08 | 85 | 1005.4 |
| 20260505003329 | 6 | 241 | 0.0 | 0.0 | 0.00 | 0.08 | 0.08 | 85 | 1005.3 |
| 20260505003006 | 6 | 241 | 0.0 | 0.0 | 0.00 | 0.08 | 0.08 | 85 | 1005.1 |
| 20260505002903 | 6 | 241 | 0.0 | 0.0 | 0.00 | 0.08 | 0.08 | 85 | 1005.1 |
| 20260505002802 | 6 | 241 | 0.0 | 0.0 | 0.00 | 0.08 | 0.08 | 85 | 1005.1 |
| 20260505002659 | 6 | 241 | 0.0 | 0.0 | 0.00 | 0.08 | 0.08 | 84 | 1005.1 |
| 20260505002556 | 6 | 241 | 0.0 | 0.0 | 0.00 | 0.08 | 0.08 | 84 | 1005.1 |
| 20260505002455 | 6 | 241 | 0.0 | 0.0 | 0.00 | 0.08 | 0.08 | 84 | 1005.0 |
| 20260505002348 | 6 | 241 | 0.0 | 0.0 | 0.00 | 0.08 | 0.08 | 84 | 1005.0 |
| 20260505002243 | 7 | 241 | 0.0 | 0.0 | 0.00 | 0.08 | 0.08 | 84 | 1005.0 |
| 20260505002136 | 7 | 241 | 0.0 | 0.0 | 0.00 | 0.08 | 0.08 | 84 | 1005.0 |
| 20260505002033 | 7 | 241 | 0.0 | 0.0 | 0.00 | 0.08 | 0.08 | 83 | 1005.0 |
| 20260505001928 | 7 | 241 | 0.0 | 0.0 | 0.00 | 0.08 | 0.08 | 83 | 1005.0 |
| 20260505001346 | 7 | 241 | 0.0 | 0.0 | 0.00 | 0.08 | 0.08 | 83 | 1004.9 |
| 20260505001021 | 7 | 241 | 0.0 | 0.0 | 0.00 | 0.08 | 0.08 | 82 | 1005.0 |
| 20260505000658 | 7 | 241 | 0.0 | 0.0 | 0.00 | 0.08 | 0.08 | 82 | 1005.0 |
| 20260505000334 | 7 | 241 | 0.0 | 0.0 | 0.00 | 0.08 | 0.08 | 81 | 1005.0 |
| 20260505000227 | 7 | 241 | 0.0 | 0.0 | 0.00 | 0.08 | 0.08 | 81 | 1005.0 |
| 20260505000121 | 8 | 241 | 0.0 | 0.0 | 0.00 | 0.08 | 0.08 | 81 | 1005.0 |
| 20260504235800 | 8 | 241 | 0.0 | 0.0 | 0.00 | 0.08 | 0.08 | 80 | 1005.0 |
| 20260504235656 | 8 | 241 | 0.0 | 0.0 | 0.00 | 0.08 | 0.08 | 80 | 1005.0 |
| 20260504235551 | 8 | 241 | 0.0 | 0.0 | 0.00 | 0.08 | 0.08 | 80 | 1004.9 |
| 20260504235446 | 8 | 241 | 0.0 | 0.0 | 0.00 | 0.08 | 0.08 | 80 | 1004.9 |
| 20260504235120 | 8 | 241 | 0.0 | 0.0 | 0.00 | 0.08 | 0.08 | 79 | 1004.9 |
| 20260504234758 | 8 | 240 | 0.0 | 0.0 | 0.00 | 0.08 | 0.08 | 79 | 1004.9 |
| 20260504234437 | 8 | 240 | 0.0 | 0.0 | 0.00 | 0.08 | 0.08 | 78 | 1004.8 |
| 20260504234335 | 8 | 240 | 0.0 | 1.6 | 0.00 | 0.08 | 0.08 | 78 | 1004.9 |
| 20260504234010 | 8 | 240 | 0.0 | 1.6 | 0.00 | 0.08 | 0.08 | 78 | 1004.9 |
| 20260504233908 | 8 | 240 | 0.0 | 0.0 | 0.00 | 0.08 | 0.08 | 78 | 1004.9 |
| 20260504233805 | 8 | 240 | 0.0 | 0.0 | 0.00 | 0.08 | 0.08 | 78 | 1004.9 |
| 20260504233701 | 8 | 240 | 0.0 | 0.0 | 0.00 | 0.08 | 0.08 | 77 | 1004.9 |
| 20260504233557 | 8 | 240 | 0.0 | 0.0 | 0.00 | 0.08 | 0.08 | 77 | 1004.9 |
| 20260504233449 | 9 | 240 | 0.0 | 0.0 | 0.00 | 0.08 | 0.08 | 77 | 1004.9 |
| 20260504233344 | 9 | 240 | 0.0 | 0.0 | 0.00 | 0.08 | 0.08 | 77 | 1004.9 |
| 20260504233018 | 9 | 246 | 0.0 | 0.0 | 0.00 | 0.08 | 0.08 | 77 | 1004.8 |
| 20260504232916 | 9 | 217 | 0.0 | 0.0 | 0.00 | 0.08 | 0.08 | 77 | 1004.8 |
| 20260504232552 | 9 | 207 | 0.0 | 0.0 | 0.00 | 0.08 | 0.08 | 77 | 1004.8 |
| 20260504232003 | 9 | 211 | 0.0 | 0.0 | 0.00 | 0.08 | 0.08 | 76 | 1004.7 |
| 20260504231640 | 9 | 240 | 0.0 | 0.0 | 0.00 | 0.08 | 0.08 | 76 | 1004.8 |
| 20260504231532 | 9 | 210 | 0.0 | 0.0 | 0.00 | 0.08 | 0.08 | 76 | 1004.8 |
| 20260504231429 | 9 | 200 | 0.0 | 0.0 | 0.00 | 0.08 | 0.08 | 76 | 1004.7 |
| 20260504231105 | 10 | 217 | 0.0 | 0.0 | 0.00 | 0.08 | 0.08 | 75 | 1004.7 |
| 20260504231002 | 10 | 219 | 0.0 | 0.0 | 0.00 | 0.08 | 0.08 | 75 | 1004.6 |
| 20260504230856 | 10 | 205 | 0.0 | 6.4 | 0.00 | 0.08 | 0.08 | 75 | 1004.7 |
| 20260504230751 | 10 | 219 | 0.0 | 6.4 | 0.00 | 0.08 | 0.08 | 75 | 1004.6 |
| 20260504230649 | 10 | 202 | 0.0 | 4.8 | 0.00 | 0.08 | 0.08 | 75 | 1004.7 |
| 20260504230546 | 10 | 216 | 0.0 | 3.2 | 0.00 | 0.08 | 0.08 | 75 | 1004.6 |
| 20260504230443 | 10 | 224 | 0.0 | 1.6 | 0.00 | 0.08 | 0.08 | 75 | 1004.6 |
| 20260504230340 | 10 | 237 | 0.0 | 0.0 | 0.00 | 0.08 | 0.08 | 75 | 1004.6 |
| 20260504230234 | 10 | 212 | 0.0 | 0.0 | 0.00 | 0.08 | 0.08 | 75 | 1004.6 |